GFSSE_sfc_thetae_021.txt.gz
Theta_e
334 342 351 353 352 353 353 354 353 351 350 348 348 348 348 347 348 348 348 349 352 350 348 347 345 344 342 341 340 339 339 340 342 345 352 351 350 349 350 349 349 348 352
336 344 349 352 353 354 353 353 353 351 350 347 347 347 347 346 346 347 347 351 351 349 347 345 345 342 341 337 336 335 335 334 335 336 343 350 349 346 346 347 347 346 349
339 344 348 351 353 353 353 352 352 352 350 349 348 347 347 348 347 346 348 350 349 347 346 344 342 340 335 334 332 332 331 331 331 333 334 332 344 347 344 345 346 345 346
339 343 346 348 351 353 352 351 351 352 351 349 349 349 349 348 347 347 349 348 346 344 343 341 339 335 332 329 327 326 326 326 328 331 329 334 342 348 346 344 344 343 344
338 341 346 347 351 352 351 351 350 351 351 351 350 349 348 347 346 347 346 344 343 341 339 337 335 332 328 325 323 320 320 321 327 324 327 334 338 342 346 344 342 342 344
336 340 344 348 351 352 351 351 350 350 351 352 349 347 347 345 345 341 342 342 341 338 336 333 332 329 325 322 319 317 319 322 319 316 326 330 332 340 339 342 344 342 343
326 338 343 347 350 351 351 351 350 350 350 351 351 349 348 346 341 337 337 336 338 335 333 331 329 325 322 319 316 315 317 318 308 316 320 322 327 335 336 336 337 338 339
325 339 343 341 344 347 349 349 349 349 349 350 350 350 349 343 340 335 334 335 334 333 330 330 325 323 320 317 313 313 314 317 309 314 315 316 329 330 330 330 332 334 335
324 336 340 342 341 340 343 344 346 347 347 348 349 348 346 341 340 338 335 334 333 333 330 328 323 321 318 315 312 310 313 316 303 310 314 314 326 325 325 327 328 329 330
322 326 335 337 339 339 340 336 339 342 343 344 344 341 337 336 336 333 331 333 333 331 328 326 322 321 318 313 308 307 311 310 300 306 308 312 321 322 322 322 324 325 326
319 324 327 333 335 337 336 336 333 336 337 338 337 332 329 329 328 327 326 330 332 329 327 324 322 319 316 310 305 306 307 296 298 303 306 315 316 317 319 320 321 322 323
313 318 325 327 332 334 339 336 334 335 336 336 334 332 330 326 324 324 321 326 328 327 327 323 321 318 309 298 296 303 296 295 295 300 305 314 315 315 317 317 320 322 324
312 316 323 326 327 331 334 331 334 336 332 332 334 330 329 327 324 320 317 318 317 319 316 317 313 306 303 299 295 295 295 294 294 298 305 312 314 316 317 319 321 320 320
306 315 319 324 325 326 329 328 332 333 331 327 332 331 328 326 322 314 313 312 312 310 308 306 304 301 298 296 295 294 294 293 293 297 303 312 314 315 317 318 320 321 322
303 306 316 321 325 326 325 325 324 329 329 329 325 328 330 327 322 312 311 311 310 308 306 304 302 297 296 295 295 294 294 293 293 298 298 311 315 316 317 319 319 321 321
302 303 307 318 323 323 325 323 323 323 324 324 325 325 323 324 321 314 310 310 310 308 305 303 299 296 295 294 294 294 294 293 294 296 299 305 315 317 315 316 319 321 320
300 301 302 308 318 319 320 322 321 322 322 322 323 324 324 321 317 312 309 309 310 307 304 299 296 295 293 294 292 293 293 293 293 294 298 301 305 313 316 317 316 318 323
298 299 300 303 311 317 317 318 321 320 320 320 321 321 323 320 316 310 307 307 307 305 302 297 295 293 292 291 290 291 291 293 293 294 295 299 300 302 307 311 315 320 319
296 297 298 300 301 309 315 315 316 319 318 318 319 318 321 318 314 312 307 306 305 301 298 296 292 292 290 290 290 289 290 291 292 294 293 293 293 297 298 303 305 308 311
295 296 297 298 300 303 308 310 311 313 314 315 316 317 319 318 313 310 305 305 303 299 295 293 292 291 290 290 292 290 289 290 290 290 291 292 291 292 294 295 294 298 308
294 294 295 296 297 299 302 305 306 307 309 311 315 317 317 316 314 308 304 303 300 299 296 293 291 291 289 288 288 287 287 288 289 289 289 289 290 291 290 291 292 295 298
292 293 293 294 295 296 299 301 303 302 301 304 309 312 314 313 313 309 304 301 298 295 293 292 292 289 290 289 287 285 283 285 287 289 288 288 288 289 289 291 291 293 297
291 291 293 293 294 294 295 297 299 299 298 299 300 304 307 310 310 308 305 301 299 298 294 293 291 291 289 288 289 288 283 283 283 286 287 287 287 287 287 288 290 292 296
289 290 291 293 293 293 293 292 292 292 292 294 295 296 297 300 304 306 305 302 299 297 295 292 293 291 289 287 287 290 288 287 283 282 285 285 286 286 286 287 288 290 294
289 287 288 290 291 292 292 291 290 289 290 291 292 292 293 295 299 300 300 302 299 297 295 294 293 290 289 289 288 286 286 286 286 283 280 282 284 285 286 286 287 288 292
288 287 287 287 288 290 290 289 289 289 289 289 289 289 290 291 293 293 295 296 298 298 295 294 294 293 292 289 288 287 287 286 284 284 281 280 281 282 284 286 287 288 289

GFSSE_sfc_thetae_024.txt.gz
Theta_e
331 339 351 353 353 354 353 352 352 352 350 349 349 349 349 349 348 349 351 350 350 349 346 344 344 343 341 340 339 339 341 342 344 350 351 350 350 350 348 348 349 347 352
333 342 349 352 354 355 354 353 352 351 349 348 348 347 346 346 347 346 347 352 350 348 346 344 343 342 339 337 336 336 336 336 336 338 343 349 348 346 346 347 347 346 350
337 344 348 350 354 354 353 353 351 350 348 347 347 347 346 345 346 347 349 350 349 347 344 343 342 339 336 334 332 332 332 332 332 333 335 331 343 345 344 344 345 345 346
338 343 346 348 352 353 352 352 352 351 350 348 347 347 347 347 346 346 349 348 346 343 342 341 338 335 332 330 328 326 326 327 328 333 331 336 344 347 345 343 344 343 344
338 342 345 347 352 353 352 351 351 351 351 349 348 348 349 347 346 348 347 345 344 342 340 338 334 332 328 325 323 320 321 324 327 332 332 334 335 342 346 343 341 342 343
336 341 343 348 351 353 352 351 351 350 350 350 350 350 348 346 345 345 345 344 342 339 336 335 332 328 324 322 319 318 321 323 325 324 324 330 332 339 342 341 343 342 342
333 337 342 347 349 351 351 351 351 350 350 351 351 349 347 345 345 341 341 339 340 335 333 332 329 325 321 318 316 317 319 319 316 318 320 323 328 336 335 338 339 339 339
332 335 342 341 344 347 349 349 349 349 349 349 350 349 349 346 340 337 336 336 336 334 332 330 326 323 319 315 313 315 318 316 315 313 313 316 331 330 331 331 333 334 336
326 334 338 341 342 340 342 344 346 347 348 348 349 348 347 342 340 338 335 334 334 332 331 329 324 320 318 314 311 313 317 316 309 310 314 314 327 326 326 327 328 329 330
320 332 335 337 339 341 342 337 339 342 343 344 343 342 339 337 337 335 332 334 333 332 330 328 323 320 317 312 309 310 312 310 304 306 309 313 324 322 322 323 324 325 326
317 323 331 334 337 337 337 335 333 336 338 338 337 334 331 331 330 328 327 331 334 333 330 327 323 320 316 309 306 309 304 297 301 302 306 316 316 318 319 321 321 322 323
312 318 324 330 333 334 339 334 332 338 339 339 337 333 331 330 326 324 323 327 331 329 330 326 323 320 309 296 295 302 294 294 298 299 305 314 315 316 318 318 319 321 323
308 314 321 327 331 332 335 334 331 331 330 330 330 329 328 328 325 323 319 320 319 320 318 319 316 306 298 295 293 294 293 293 295 296 305 312 315 317 318 319 322 323 321
301 307 314 323 326 330 332 331 333 334 335 328 328 328 328 326 324 322 319 316 314 312 310 308 306 303 299 297 294 293 293 292 294 296 302 312 315 317 319 321 321 321 322
298 299 302 316 322 326 327 326 329 331 332 330 325 326 326 326 323 320 317 313 311 309 307 304 303 300 296 294 294 293 292 292 293 296 297 310 315 317 319 320 321 321 322
298 298 299 305 319 322 325 323 325 327 327 325 325 325 324 324 324 318 315 313 309 308 305 304 302 297 294 293 293 293 292 292 293 296 297 303 315 317 318 319 321 323 321
296 297 298 301 308 318 321 321 320 321 322 322 323 322 322 321 318 315 314 312 311 307 305 302 299 295 293 292 291 292 292 292 292 295 297 301 305 313 317 316 319 321 321
294 295 297 300 302 313 315 317 319 319 319 319 320 321 323 324 320 314 313 313 312 307 304 300 296 293 292 290 289 290 290 291 292 292 294 299 301 303 308 312 314 319 322
293 294 295 298 298 304 312 314 315 316 316 316 317 318 323 322 319 317 313 312 310 308 302 300 293 293 291 289 289 288 289 290 290 293 292 296 296 298 299 304 305 307 312
293 293 294 296 296 300 305 308 309 311 312 313 314 317 320 318 315 313 311 310 308 305 300 295 294 291 290 290 291 289 288 289 289 289 290 292 291 293 295 296 295 298 307
292 292 293 293 294 296 297 301 303 304 304 305 313 314 316 317 313 311 310 308 305 303 302 298 292 291 289 288 287 286 286 287 288 288 289 289 289 290 290 292 292 295 298
290 291 292 292 292 293 295 296 299 298 298 299 303 305 305 311 313 310 307 305 303 300 298 295 294 289 289 288 286 284 283 285 287 288 288 288 287 288 289 290 290 292 295
287 289 290 291 292 292 292 293 294 294 294 294 294 296 297 300 305 307 307 303 301 300 298 296 294 293 290 288 287 287 281 282 282 285 286 287 287 286 287 288 289 290 293
285 287 289 290 290 291 291 290 289 289 288 289 290 291 292 293 294 296 299 303 301 298 298 296 295 294 292 290 287 289 287 285 282 282 284 285 286 286 286 286 287 288 292
285 285 285 287 287 288 288 289 289 288 288 289 289 289 289 290 291 290 291 292 296 299 297 295 294 292 292 291 289 286 285 285 284 283 282 282 283 285 286 287 287 287 289
284 283 284 285 285 285 285 285 285 285 285 285 285 285 286 288 289 288 289 289 290 291 293 295 294 293 293 292 291 289 288 285 284 284 281 281 281 283 284 285 286 287 288

GFSSE_sfc_thetae_027.txt.gz
Theta_e
330 335 351 354 353 353 353 353 351 351 350 350 349 349 350 349 350 351 349 349 349 348 344 343 342 342 340 340 340 342 343 343 345 348 350 350 349 348 348 348 348 347 351
331 338 349 353 354 354 354 353 352 351 349 349 348 347 347 347 347 347 348 350 348 347 345 342 342 340 338 337 336 337 338 337 336 338 343 347 347 346 346 346 347 346 348
333 340 347 350 353 354 353 353 351 350 348 348 347 346 345 345 345 346 348 349 348 345 343 342 341 337 335 333 333 334 333 332 334 337 335 336 339 344 344 344 345 345 345
336 341 346 348 352 353 353 352 350 350 349 347 347 346 345 345 344 348 349 347 345 342 341 340 337 335 331 330 329 328 329 329 333 336 334 337 342 345 344 344 343 343 343
336 341 345 347 352 353 352 352 351 350 350 348 347 347 348 346 345 347 348 346 343 341 340 338 334 331 328 326 324 323 325 327 334 334 332 333 333 344 345 342 341 341 342
334 339 342 348 352 353 352 351 350 349 349 349 348 348 349 346 347 347 346 344 342 339 336 335 332 327 324 321 319 322 324 329 329 322 324 329 332 340 342 341 341 341 341
332 336 339 346 350 351 351 351 351 350 349 350 350 349 347 346 345 344 344 341 338 334 333 332 329 324 321 318 317 320 321 325 318 318 320 323 329 337 335 338 339 340 340
331 334 338 339 343 347 349 350 350 350 350 350 351 350 349 346 345 340 337 338 335 333 330 330 326 322 319 315 315 319 319 320 315 313 314 317 330 331 331 333 333 335 335
329 332 335 339 340 338 342 344 345 347 348 348 349 348 346 345 342 340 338 336 335 333 331 330 324 321 317 312 313 317 318 318 309 310 314 314 328 325 326 327 329 330 331
320 330 333 336 340 340 341 336 338 341 342 344 343 341 338 337 337 335 333 335 335 333 331 330 324 320 317 311 310 313 314 313 305 307 309 313 324 323 322 323 324 326 326
316 323 329 332 336 340 340 336 334 336 337 338 337 334 332 334 332 328 327 332 335 334 331 329 324 321 316 309 307 310 304 299 300 302 305 315 317 319 319 321 321 322 323
307 314 321 328 332 335 339 335 333 337 339 339 339 337 334 331 330 327 323 327 331 331 331 329 324 321 309 296 294 301 293 295 297 298 303 315 316 316 318 318 319 321 322
302 307 315 322 327 330 336 333 329 329 331 335 336 335 332 328 326 324 324 324 322 321 318 321 315 307 299 292 292 293 292 292 295 295 302 312 316 317 318 318 321 322 322
296 297 299 306 322 326 328 333 331 328 328 328 331 330 328 326 325 322 322 321 320 318 312 310 307 304 299 297 295 293 292 291 293 294 298 311 315 317 319 321 322 320 321
295 296 297 298 314 323 325 325 326 332 331 333 327 327 326 323 324 322 320 319 318 314 310 306 305 303 298 294 293 292 291 291 292 295 295 307 313 318 319 322 321 322 322
295 295 297 299 301 319 323 321 323 324 333 329 324 324 323 322 320 320 318 317 315 313 310 306 304 301 297 293 292 292 291 291 291 294 295 299 313 317 320 321 322 322 324
293 294 296 299 302 313 318 319 320 320 321 322 322 322 322 321 321 319 318 315 315 312 309 305 301 298 294 292 291 291 291 291 291 292 296 298 303 311 317 319 320 323 324
292 293 295 298 299 307 314 316 318 318 318 318 319 321 324 323 322 318 316 314 314 311 309 305 300 297 294 291 289 289 289 290 291 291 293 296 300 302 307 313 315 318 322
292 292 293 295 296 301 309 312 313 313 313 315 318 319 321 323 321 319 315 314 312 310 308 306 299 298 293 290 290 288 288 288 289 291 290 292 297 299 299 304 308 307 312
291 292 292 294 294 298 303 306 305 304 303 309 309 309 315 318 316 316 314 312 310 309 304 302 300 295 294 291 291 289 287 288 288 288 289 291 293 293 295 296 297 297 306
290 291 291 291 292 294 295 298 300 297 297 297 299 299 302 307 311 311 311 310 308 308 305 302 297 295 293 291 288 287 287 287 287 288 288 288 289 290 290 293 293 294 297
287 289 290 290 291 291 292 293 295 294 294 293 295 295 295 296 298 303 305 305 304 303 301 299 296 294 293 291 290 285 285 286 286 287 287 288 287 288 288 289 289 291 293
284 285 288 288 289 290 291 292 292 291 290 290 290 291 291 292 292 294 295 300 301 301 300 298 296 295 294 291 290 291 286 282 282 285 285 286 286 286 286 287 288 289 290
283 284 285 286 286 288 289 289 288 287 286 287 287 288 289 289 289 290 291 292 293 297 297 297 297 294 293 292 290 290 289 288 285 284 284 284 285 286 285 286 287 287 288
283 282 283 284 284 284 284 285 285 283 284 284 284 284 285 286 286 286 287 288 288 289 290 293 294 294 293 292 291 290 288 288 286 285 285 283 284 285 286 286 286 286 287
282 282 282 283 283 283 283 283 282 281 281 281 281 281 282 283 284 284 285 285 286 286 287 288 289 291 292 292 292 290 289 288 287 286 285 285 284 284 284 284 285 287 287

GFSSE_sfc_thetae_030.txt.gz
Theta_e
330 334 351 354 354 354 354 352 351 352 351 350 350 350 350 350 349 349 349 348 349 345 343 343 343 342 340 341 343 343 345 345 346 349 350 350 349 348 348 348 348 346 351
331 335 349 353 354 354 354 353 352 352 350 349 349 349 348 348 349 349 349 350 348 346 344 342 342 340 338 337 338 340 340 337 339 342 344 347 347 345 346 346 348 344 348
331 338 346 351 353 354 353 353 352 351 349 348 347 346 346 346 345 346 350 349 347 344 342 340 340 338 335 334 334 334 334 335 338 338 341 337 339 345 344 344 345 345 345
332 341 345 348 352 353 353 352 351 350 349 347 346 345 345 345 347 348 349 347 344 344 342 339 337 334 332 330 329 329 330 334 338 338 335 335 341 345 345 343 342 342 342
333 339 343 347 352 353 353 352 351 350 349 347 347 346 346 345 345 348 347 345 343 341 340 337 335 331 329 326 324 326 327 335 335 331 330 331 333 344 344 341 340 341 342
332 337 342 347 352 352 352 352 350 348 348 348 347 347 347 346 345 348 346 344 342 340 337 335 332 328 325 322 321 324 327 333 328 322 324 329 331 340 341 341 341 342 342
330 335 338 346 350 351 351 351 351 350 349 350 348 348 348 346 347 345 345 342 340 334 332 332 329 326 322 318 319 320 326 328 318 318 320 323 329 337 336 337 338 340 340
329 333 337 339 344 347 349 350 350 350 350 350 350 349 348 346 344 342 338 340 337 333 330 331 327 324 320 316 317 320 322 321 315 313 314 316 329 331 332 333 335 335 336
324 330 332 336 339 338 343 344 346 348 348 347 348 347 346 345 345 341 338 337 333 333 330 330 326 322 319 314 316 318 320 318 309 310 313 314 326 326 327 328 329 330 331
317 326 328 333 340 338 339 335 338 342 343 343 343 341 339 339 338 336 333 335 333 334 330 329 325 321 318 313 312 314 316 313 305 307 309 312 325 323 322 323 324 326 326
311 316 324 329 336 339 341 335 332 335 336 337 337 334 333 333 334 330 328 332 336 335 332 329 324 321 317 311 310 310 304 299 299 301 304 316 319 320 320 321 321 322 323
297 301 310 322 330 336 338 338 336 335 339 338 338 337 336 333 331 329 324 327 331 331 332 328 325 319 308 294 292 299 292 295 296 297 300 315 318 318 319 319 319 321 322
294 296 298 299 317 333 335 336 334 332 331 335 337 336 334 332 328 327 325 325 326 323 321 320 313 307 302 292 291 292 291 291 293 294 298 311 316 320 319 319 320 322 323
293 295 297 297 299 321 333 335 334 331 329 330 328 333 331 328 326 324 323 323 323 321 318 315 310 305 301 296 294 292 291 290 291 293 295 307 312 318 321 321 322 322 321
293 294 295 297 299 307 324 330 331 331 329 327 328 326 329 327 325 323 323 321 320 318 316 313 309 304 302 297 293 292 291 290 290 292 294 302 311 316 321 322 323 322 323
293 293 295 297 301 306 318 322 326 329 330 331 329 327 326 325 323 322 319 318 317 316 315 312 309 304 301 295 293 292 291 290 290 291 294 295 306 315 318 323 323 323 323
291 293 294 298 302 310 316 320 321 323 325 325 325 323 324 322 322 321 320 318 318 315 313 309 306 304 300 294 292 291 290 290 290 290 292 295 298 307 313 320 321 323 324
291 291 294 296 300 310 313 315 315 316 317 318 319 321 322 323 323 321 319 317 316 313 312 309 305 301 300 297 292 290 289 289 290 290 290 293 296 299 305 312 315 318 320
290 291 292 294 295 302 304 304 304 304 304 303 304 307 311 314 315 318 317 315 314 313 309 307 303 302 301 298 295 292 289 288 289 290 289 290 292 297 298 303 308 308 312
289 290 291 293 293 296 302 300 298 297 297 298 297 298 299 302 307 310 310 310 310 309 306 304 302 298 296 296 294 292 289 288 288 288 288 290 290 292 293 295 296 298 305
288 289 289 290 291 293 293 295 295 292 293 293 295 295 295 296 298 300 304 304 305 304 303 303 299 298 298 293 293 293 291 290 288 288 288 288 288 289 290 290 292 293 295
284 286 287 288 289 291 291 291 291 291 290 290 292 290 290 291 292 294 296 298 299 300 300 299 297 296 295 293 292 289 290 289 287 287 286 287 287 287 288 289 288 289 290
282 282 284 285 286 288 289 290 290 289 287 286 286 286 286 286 288 289 290 291 293 295 295 296 296 296 294 294 291 291 289 287 286 286 286 286 286 286 287 287 288 288 289
281 282 283 283 284 285 286 285 284 283 282 282 282 283 284 284 285 285 286 287 288 288 288 290 294 294 293 291 292 291 289 288 287 286 286 287 285 286 286 286 286 287 288
281 280 281 282 282 282 282 283 282 281 281 281 281 281 282 282 283 284 284 284 284 285 285 286 287 288 291 290 291 290 289 288 288 286 285 286 287 286 286 286 286 286 287
281 281 281 281 281 281 281 281 280 279 279 280 279 280 280 281 281 281 282 282 282 282 282 283 283 284 285 287 288 288 289 288 288 287 286 288 288 288 285 285 285 286 286

GFSSE_sfc_thetae_033.txt.gz
Theta_e
335 340 351 355 354 355 354 352 351 352 352 351 351 350 350 350 349 349 350 350 348 345 344 343 342 341 341 344 344 345 345 345 346 348 349 349 349 349 349 348 348 348 350
335 339 349 354 355 355 355 353 353 353 352 350 350 349 350 351 350 349 349 350 346 344 342 342 341 339 338 338 340 340 338 340 342 344 345 347 347 346 346 346 346 344 347
335 340 350 351 354 354 354 353 352 352 350 349 349 348 347 346 346 350 349 349 346 344 341 341 339 337 334 334 334 335 335 338 340 342 342 344 345 345 345 344 344 344 344
335 342 348 348 353 353 352 352 352 351 350 348 346 346 346 347 348 350 348 345 344 344 342 339 337 334 332 330 329 331 333 339 340 339 342 344 344 345 343 342 342 342 342
336 343 347 347 352 353 352 352 351 351 350 348 347 346 346 345 348 349 346 344 343 342 340 338 335 331 328 326 327 329 333 337 334 336 339 341 344 344 343 341 340 341 342
336 342 345 348 352 352 352 352 350 349 348 348 347 346 347 345 346 348 346 344 342 339 337 335 333 329 325 323 324 326 333 333 330 333 335 337 340 340 341 341 341 342 341
335 340 344 346 350 352 351 352 351 349 349 349 348 347 348 346 347 347 345 342 339 335 332 333 331 327 323 320 322 324 330 328 328 329 330 332 336 337 337 337 338 339 340
334 337 341 338 343 347 348 349 350 350 350 350 350 349 347 346 345 343 339 341 337 334 332 330 328 325 321 318 321 322 324 321 321 323 324 326 330 330 331 332 335 336 336
332 335 338 341 341 336 342 343 346 347 347 347 347 347 345 345 345 342 338 339 334 333 332 331 327 323 320 316 318 321 321 318 317 318 319 323 328 327 328 328 330 331 331
310 319 331 336 340 344 346 335 338 342 343 343 342 340 338 338 338 336 332 335 333 333 331 331 326 323 320 314 314 313 312 311 312 314 316 319 324 323 322 323 324 326 326
302 303 306 316 334 338 341 339 332 335 337 338 337 334 335 343 339 333 329 332 335 334 332 330 326 322 316 309 310 308 304 306 307 308 310 317 321 321 321 322 322 323 324
298 300 301 303 307 330 338 340 339 341 344 344 341 339 339 339 336 331 326 328 331 331 332 329 325 318 311 304 300 302 301 301 304 304 306 313 318 321 320 320 320 321 323
296 299 300 301 303 307 333 338 338 338 341 338 339 338 337 334 332 330 328 327 329 324 325 323 318 315 311 304 300 301 300 300 301 302 302 309 313 318 322 322 321 323 323
296 297 299 300 303 307 322 334 336 335 334 333 332 336 338 333 330 328 327 326 326 325 322 320 317 316 311 305 302 301 299 299 300 301 302 304 311 315 320 322 322 323 322
295 296 298 300 303 307 318 331 332 332 332 331 330 330 330 333 331 327 327 326 328 325 322 318 315 311 313 308 303 300 299 299 298 299 301 302 307 314 318 322 324 323 323
294 295 297 301 307 314 322 328 328 329 330 329 327 326 326 327 326 325 323 323 321 320 321 320 315 314 313 307 304 300 299 299 298 298 299 301 304 309 315 320 323 324 324
293 294 296 302 312 317 321 321 320 320 320 319 320 319 320 323 323 323 323 322 321 319 316 313 311 309 307 305 303 301 299 298 298 298 298 299 302 304 308 316 320 323 325
292 293 296 300 306 308 309 309 307 306 306 307 309 311 313 315 318 318 316 315 316 315 313 311 308 306 305 303 301 301 299 298 297 297 297 298 299 301 304 307 313 316 318
291 292 294 297 300 303 302 301 301 300 300 301 300 301 303 308 312 312 311 311 313 311 308 307 305 303 303 302 300 299 298 298 298 296 297 297 298 299 302 304 306 307 310
290 291 293 295 296 300 300 299 297 297 296 295 295 296 297 299 303 306 306 306 308 307 306 305 304 301 299 297 297 297 297 297 296 297 297 296 296 296 298 299 302 303 303
288 289 290 292 293 296 297 297 295 292 292 291 291 291 292 294 296 298 301 301 304 302 302 302 302 301 300 297 296 298 297 296 295 296 296 295 296 296 296 297 298 299 300
285 286 287 288 290 292 293 293 293 291 289 288 288 288 288 289 291 292 293 294 295 296 297 298 299 300 300 297 296 294 294 299 295 295 295 294 295 294 295 296 296 296 297
283 283 285 286 287 288 290 291 290 288 287 286 286 286 286 287 287 289 288 289 290 291 291 292 295 295 295 297 296 296 295 292 292 299 296 294 294 294 295 294 294 294 295
282 283 284 284 285 285 287 286 285 284 282 283 284 284 285 285 285 286 286 286 287 287 286 288 289 291 294 292 296 295 294 292 290 290 294 297 295 294 295 296 295 295 295
283 282 283 283 283 283 284 285 284 282 283 283 283 283 283 284 284 284 284 284 284 285 285 285 285 285 287 287 289 291 292 293 292 288 288 291 295 296 296 295 295 294 295
282 282 282 282 282 282 282 282 282 282 282 282 282 282 282 282 282 282 283 283 283 283 283 283 283 284 284 284 285 286 287 288 288 288 288 289 289 293 294 295 294 294 295

GFSSE_sfc_thetae_036.txt.gz
Theta_e
339 348 351 356 355 354 353 351 351 353 352 351 350 350 350 349 349 349 349 349 346 344 343 343 341 341 343 343 343 344 344 344 346 347 348 348 348 349 348 346 348 348 350
341 347 350 354 355 353 353 352 352 353 352 351 350 350 351 350 350 350 348 346 345 343 343 342 340 338 338 339 340 339 341 342 343 344 346 347 346 346 345 345 346 345 346
339 346 351 352 354 354 353 353 352 352 350 350 349 348 348 346 349 349 347 346 345 342 341 340 337 336 334 333 335 336 339 341 342 343 344 344 344 345 344 343 343 343 343
339 346 350 349 352 353 352 352 352 351 349 348 347 346 346 347 349 349 346 344 344 344 342 339 335 333 330 330 332 333 339 341 339 340 342 343 343 343 342 342 342 341 341
340 346 349 348 352 352 352 351 351 350 349 347 346 346 345 347 349 348 345 343 341 341 340 338 334 331 328 327 328 332 337 337 335 340 341 343 342 342 342 342 340 340 340
340 344 346 348 352 352 351 351 349 349 349 348 347 347 346 345 348 347 345 341 339 336 334 335 333 329 325 324 325 329 333 333 334 338 339 339 340 340 340 340 341 341 341
339 344 348 346 350 351 351 351 350 349 348 348 347 347 347 345 347 345 343 340 337 334 333 332 330 327 322 322 324 326 329 327 331 334 335 337 336 335 336 337 338 339 338
339 343 344 340 344 348 349 349 349 350 349 349 349 348 346 345 345 343 340 338 336 335 334 332 329 325 321 320 322 323 323 321 323 325 328 329 330 330 331 331 334 335 336
334 340 344 345 344 336 342 343 346 347 347 347 347 346 346 345 344 341 340 338 335 335 333 331 327 324 320 317 318 320 318 317 319 321 320 324 327 327 326 327 329 330 331
313 317 322 337 340 345 348 335 337 342 343 344 343 341 339 339 340 335 333 336 335 334 333 330 327 323 319 315 315 312 311 313 315 317 319 320 323 324 323 324 324 325 326
310 311 312 316 324 337 341 341 334 335 338 338 338 335 335 344 343 337 331 334 336 335 333 330 326 322 315 307 307 307 308 310 310 311 312 315 320 322 321 322 322 322 324
307 308 310 311 314 320 337 341 342 344 346 345 344 342 341 342 341 335 328 329 331 332 332 330 326 319 319 317 309 307 307 307 307 308 308 311 316 320 323 322 321 322 324
305 308 309 310 311 315 334 340 342 342 345 344 343 341 340 338 336 335 333 331 332 326 329 329 324 325 322 319 312 307 306 306 307 307 307 308 313 318 321 324 322 323 323
305 307 310 312 314 314 326 337 339 339 341 343 336 339 340 339 337 334 334 330 330 330 329 325 323 322 323 317 313 310 307 307 306 306 307 304 309 315 319 323 325 324 323
304 307 309 314 318 318 319 336 336 336 335 333 332 331 334 334 336 338 336 331 331 331 331 329 322 317 320 320 316 311 308 306 305 305 306 305 305 310 315 320 324 327 324
304 306 311 311 319 322 329 331 329 328 327 326 326 327 327 328 328 328 327 327 328 326 326 321 318 316 313 311 316 311 309 308 306 305 305 306 303 307 310 315 322 326 328
304 307 303 308 314 317 316 314 314 314 315 316 317 318 320 324 325 324 321 320 319 318 317 317 312 312 312 310 308 306 305 309 308 306 305 305 305 307 306 311 315 319 322
303 304 304 306 307 306 306 306 305 305 308 309 310 312 313 315 317 316 314 314 315 315 314 313 312 311 309 306 308 309 306 306 308 307 306 305 305 304 307 306 309 313 316
301 303 302 303 303 302 302 301 300 300 301 304 304 305 304 310 311 311 312 312 313 311 310 310 309 309 309 308 308 310 307 302 305 307 307 306 304 303 304 305 303 305 308
300 303 303 302 303 302 301 300 299 298 298 298 300 301 303 303 307 309 309 310 311 310 308 310 309 309 307 305 303 302 304 304 302 303 306 304 303 302 302 302 304 304 303
298 300 301 303 304 307 306 304 301 298 297 295 296 297 298 299 301 302 302 302 304 303 304 305 308 307 306 305 307 309 309 306 303 302 305 304 303 301 302 302 303 303 303
295 297 298 298 300 301 301 300 297 294 293 293 293 292 293 293 294 294 296 296 298 298 298 300 301 303 303 303 300 304 303 306 304 306 306 303 302 303 303 301 301 301 302
292 293 294 295 296 297 296 295 293 293 293 291 290 290 290 291 291 292 292 292 292 292 291 292 295 297 298 300 301 299 297 297 297 304 303 302 303 302 303 304 303 303 302
290 291 291 293 293 294 295 294 294 292 288 288 289 289 289 289 289 290 290 290 290 290 289 290 290 290 291 289 296 295 298 296 293 293 299 299 300 298 300 301 301 302 302
289 289 290 290 290 290 291 291 290 289 288 289 288 288 288 288 288 288 288 288 288 288 288 288 288 288 289 288 288 289 290 291 295 288 287 290 292 293 296 297 297 299 300
288 288 289 288 287 289 289 290 289 288 288 287 287 287 287 287 287 287 287 287 287 287 286 287 287 287 287 287 287 287 286 285 285 285 284 285 287 289 291 293 295 296 300

GFSSE_sfc_thetae_039.txt.gz
Theta_e
340 349 354 355 353 353 352 352 351 352 351 350 350 349 349 349 350 349 347 345 344 343 342 342 341 342 343 343 343 344 344 345 345 347 348 348 347 347 347 347 348 346 350
342 349 351 355 354 353 352 351 351 353 351 351 350 350 350 350 350 348 346 346 343 342 341 340 339 337 337 338 339 341 343 343 344 345 346 348 346 345 344 344 346 344 346
342 349 351 352 354 354 353 352 352 352 350 350 349 349 348 347 350 348 346 346 344 343 340 338 336 334 333 334 335 339 342 342 342 343 345 343 342 344 343 343 343 343 343
340 347 350 349 352 353 352 352 351 351 350 349 347 346 346 350 348 347 344 343 344 343 341 337 335 332 330 331 333 336 339 340 340 342 339 342 341 343 343 342 341 340 341
340 346 349 348 351 351 351 351 351 350 349 347 346 346 347 348 348 346 343 341 339 338 338 337 334 329 327 327 328 335 336 337 338 338 337 340 341 342 342 342 341 339 340
340 346 347 349 351 351 351 350 349 349 348 347 346 346 345 348 347 345 342 339 337 335 335 334 332 328 325 326 328 330 332 333 333 335 335 336 337 339 339 339 340 340 340
339 344 349 348 350 350 350 350 349 348 348 348 347 347 346 345 346 343 341 338 337 335 334 333 330 326 323 324 325 326 326 326 328 330 331 332 331 333 334 335 337 337 338
340 343 346 342 343 347 349 348 348 349 347 346 347 347 345 345 345 341 339 338 337 336 334 332 329 325 320 321 323 323 322 323 319 320 323 326 330 330 330 331 332 334 334
336 342 343 344 344 336 339 344 345 346 347 346 346 344 344 344 344 341 341 338 336 335 334 331 328 325 320 318 317 315 316 319 318 319 319 323 326 327 327 327 327 328 329
320 324 328 339 340 345 346 336 337 342 344 344 343 342 340 339 339 336 334 337 336 335 333 330 327 324 319 313 313 311 313 316 313 314 316 316 323 325 325 325 324 325 326
313 314 316 320 332 339 342 339 334 336 338 338 339 335 334 343 342 334 331 335 337 335 333 330 328 323 317 310 308 309 312 309 309 311 311 315 318 323 326 324 324 324 325
310 312 313 315 317 327 336 340 343 344 345 345 344 343 342 342 341 338 329 329 332 332 333 330 325 321 321 322 313 312 308 308 309 309 308 311 315 320 323 325 325 325 326
309 311 313 315 315 317 331 340 342 344 344 343 343 342 340 340 339 338 334 332 334 326 330 330 325 326 326 323 318 313 309 309 308 309 307 309 312 317 321 323 326 325 325
309 311 314 317 319 318 323 337 340 340 341 341 339 340 339 339 338 338 335 335 333 331 332 330 327 324 323 321 318 316 312 310 308 308 308 307 309 313 317 321 324 327 325
308 312 315 318 321 320 321 337 336 331 329 329 330 332 335 335 335 335 336 333 332 332 330 329 325 322 321 320 320 316 313 311 309 308 309 306 305 308 313 316 322 327 328
309 312 311 314 321 323 321 320 321 321 320 321 320 322 325 328 327 326 325 324 323 323 322 323 320 319 315 314 316 315 313 313 311 311 309 310 306 305 307 310 315 320 325
310 308 308 310 314 313 311 311 312 314 314 314 315 317 318 320 320 320 318 318 318 318 317 317 315 313 313 312 312 310 310 312 313 312 311 310 310 308 305 308 311 313 317
310 305 306 307 307 306 305 305 306 308 310 311 312 313 315 314 315 316 314 314 314 313 313 313 311 312 312 310 309 310 311 312 310 311 311 310 310 308 310 306 307 309 310
307 305 304 305 304 303 302 301 301 302 304 307 308 309 309 312 314 314 313 313 314 314 313 314 314 313 311 310 309 311 313 311 307 307 310 310 308 307 306 308 305 305 306
307 304 304 304 302 301 301 300 300 300 302 303 303 303 305 305 307 307 307 308 309 307 307 308 311 312 308 306 306 309 312 311 307 308 307 305 306 305 305 305 306 305 306
306 306 304 305 304 304 304 304 303 300 299 297 298 299 299 299 301 302 301 302 303 301 301 303 305 306 305 304 306 305 310 308 306 306 308 307 305 305 306 304 304 303 304
303 304 305 306 307 307 305 302 299 297 296 295 295 294 295 295 295 295 296 295 296 295 295 296 297 301 301 302 297 303 302 304 302 304 306 304 304 304 303 304 304 304 304
299 301 301 302 301 300 299 298 296 296 296 293 292 291 292 292 292 294 293 293 293 293 291 292 293 292 292 295 295 296 294 294 294 302 302 300 301 297 297 299 301 301 301
295 296 298 297 298 298 299 298 297 295 291 291 290 290 290 291 290 291 292 291 292 291 291 291 291 291 291 289 292 291 293 292 290 289 293 293 292 292 293 296 293 294 299
293 294 294 294 294 295 295 296 294 291 291 290 290 289 289 289 290 290 290 290 290 290 290 289 289 289 289 288 288 288 289 288 290 285 283 285 289 290 292 291 292 296 295
291 292 292 291 291 292 293 293 292 291 290 289 289 288 288 288 288 288 288 289 288 287 288 288 289 288 288 287 287 287 286 284 284 283 282 283 284 286 288 289 293 293 295

GFSSE_sfc_thetae_042.txt.gz
Theta_e
340 348 353 355 353 352 352 351 352 352 352 350 350 350 350 350 349 349 346 344 342 342 342 341 340 341 343 343 343 345 345 345 345 347 348 347 347 346 345 346 347 345 349
344 348 352 354 354 354 353 352 353 352 352 350 350 350 350 350 348 347 345 345 342 340 341 339 337 336 337 338 340 343 344 344 345 344 347 347 347 345 345 344 345 343 346
344 349 352 352 353 353 353 352 352 353 352 350 350 349 348 349 348 346 345 345 343 341 339 338 335 334 334 335 338 341 342 342 343 343 344 339 340 344 344 343 343 343 343
343 347 349 350 352 351 351 352 352 352 351 348 347 346 350 349 347 345 343 342 342 340 339 337 333 331 330 330 336 338 339 340 341 340 341 340 339 344 343 343 342 340 340
339 346 347 348 350 351 351 350 350 350 350 348 346 347 348 348 346 344 341 338 337 337 336 335 332 329 328 329 331 333 335 336 337 335 333 335 333 340 340 342 341 340 340
337 346 345 348 350 350 350 350 349 348 349 347 346 345 347 347 346 343 340 338 337 336 335 333 329 326 326 327 327 328 329 330 333 327 328 330 328 336 336 338 339 339 339
334 346 346 347 349 349 349 349 349 349 348 348 348 346 346 346 344 342 340 338 337 336 334 331 328 324 324 324 324 324 324 325 318 318 322 323 324 331 332 333 334 335 336
337 342 346 341 341 343 348 348 348 348 347 346 346 346 345 345 345 342 339 338 337 336 334 332 328 323 321 320 320 320 320 323 316 314 318 319 328 328 329 328 329 330 331
326 336 339 343 341 335 338 341 344 346 346 346 345 345 344 344 343 342 340 339 337 335 334 331 328 324 318 316 315 314 317 319 309 312 315 316 326 327 327 327 326 326 327
314 317 319 333 339 340 342 334 338 342 343 343 342 340 338 338 336 336 334 338 337 335 333 331 328 324 318 313 312 313 316 315 304 306 308 313 321 326 327 325 325 325 326
309 309 311 313 321 336 338 336 332 337 338 338 337 334 332 338 334 332 332 335 337 336 333 330 327 323 317 314 313 312 313 302 302 303 305 315 319 323 325 327 326 326 327
304 306 309 310 311 316 332 337 339 342 340 339 339 337 338 338 337 333 327 330 332 332 333 330 326 324 321 313 307 309 301 301 301 301 304 312 315 320 323 325 328 326 326
303 307 310 311 312 312 325 335 337 337 337 338 336 337 336 335 331 331 326 326 328 326 328 325 322 320 319 315 312 307 305 302 300 300 307 310 312 316 319 322 325 328 327
304 308 312 315 316 312 314 335 335 333 330 331 331 332 334 333 331 331 328 328 328 328 328 325 322 319 318 316 313 311 307 304 301 300 303 309 309 312 316 318 323 327 329
305 309 309 314 317 315 316 331 327 326 325 324 324 326 329 329 326 326 326 326 324 326 325 322 320 319 315 315 316 312 309 306 304 303 301 308 308 310 312 314 318 320 325
307 306 310 312 315 316 317 318 318 318 319 317 317 318 321 322 321 320 319 318 318 319 318 316 315 314 313 311 312 311 310 309 308 305 304 303 309 308 309 314 316 317 319
305 307 308 309 311 309 309 312 312 313 314 313 314 314 315 317 316 315 313 312 313 314 313 313 313 312 311 310 309 309 308 309 310 308 306 304 305 308 309 311 311 313 314
304 305 306 307 305 304 304 306 308 309 310 309 309 310 312 312 311 311 312 311 312 312 312 310 308 308 307 306 305 306 307 307 305 306 308 305 303 302 305 309 309 310 311
303 305 304 304 302 301 301 301 302 304 305 305 305 304 305 308 309 307 306 306 306 305 304 306 306 304 301 300 301 302 305 304 302 304 303 301 301 300 299 306 308 308 309
304 304 303 302 301 300 300 300 301 299 299 298 297 298 300 301 302 301 301 300 300 299 298 298 302 302 298 297 300 302 303 302 300 299 300 301 300 301 300 299 299 300 308
304 304 303 302 302 303 302 301 298 295 293 293 294 294 294 295 296 295 294 295 293 292 291 292 296 296 295 294 295 296 301 299 296 298 299 298 299 297 296 298 298 299 300
302 303 304 304 303 304 301 298 294 291 290 290 290 290 291 291 291 291 290 289 289 289 288 288 288 290 289 290 289 293 292 296 293 296 296 292 293 292 292 293 293 291 292
297 300 301 300 298 296 294 293 292 291 289 287 287 287 288 289 289 289 289 288 288 287 286 286 286 286 285 286 286 288 286 284 287 292 288 287 287 287 288 289 291 289 292
293 294 295 296 295 294 293 292 291 289 286 286 285 286 287 287 287 288 287 287 286 286 285 285 286 285 284 282 285 287 284 282 281 282 283 284 286 286 285 287 286 287 292
291 291 291 291 291 292 292 291 289 286 286 286 285 285 285 285 286 286 286 285 285 285 284 284 283 283 283 282 282 282 282 281 281 278 276 279 282 283 284 285 285 287 290
288 288 288 288 289 290 289 289 287 286 285 285 284 283 283 283 284 284 285 284 283 283 283 283 283 282 282 282 281 281 281 279 278 278 276 278 278 280 283 284 285 285 288

GFSSE_sfc_thetae_045.txt.gz
Theta_e
339 348 351 353 353 352 352 351 353 353 352 352 351 351 350 348 347 347 345 342 341 341 341 340 340 341 342 344 345 345 345 345 346 348 347 347 346 345 345 345 345 345 349
345 350 350 354 354 354 353 353 353 352 352 351 350 351 350 349 347 345 344 345 342 340 339 338 337 337 338 340 342 343 344 344 344 344 344 346 347 344 344 343 345 341 347
346 350 350 350 354 353 352 353 353 352 352 351 349 349 349 348 345 345 344 344 341 339 339 336 334 333 334 338 339 340 342 342 341 343 343 338 339 343 344 342 342 342 343
346 349 350 348 351 352 351 351 352 351 351 348 347 350 349 347 344 341 339 338 338 338 338 335 333 331 332 333 335 337 338 337 339 341 335 335 336 341 342 342 341 340 340
344 348 348 347 350 351 350 350 351 351 350 347 347 349 348 346 343 340 339 338 336 336 335 332 331 329 329 329 330 332 333 333 334 332 328 328 329 334 337 338 340 339 338
341 346 344 348 351 351 349 350 350 350 348 347 346 348 348 346 342 340 339 338 336 334 332 329 327 326 326 326 326 327 328 328 324 322 322 326 325 333 334 335 335 336 337
341 344 345 346 348 349 349 349 349 349 348 348 347 347 346 345 342 340 339 338 337 335 334 330 325 323 322 322 322 324 324 325 313 318 318 320 323 330 330 330 331 332 333
337 344 345 338 340 342 347 347 347 347 347 346 346 345 345 344 343 340 339 338 337 336 334 332 327 321 319 318 318 320 322 323 313 313 314 316 329 329 329 328 327 328 329
318 322 339 342 338 335 337 341 344 345 346 345 345 344 343 343 342 341 340 339 337 335 334 332 327 322 317 315 315 318 321 318 306 307 312 313 327 329 329 327 327 327 329
309 311 313 319 337 338 339 332 339 340 341 341 339 338 336 337 337 336 334 338 337 335 333 331 327 323 318 316 318 319 316 311 302 304 307 313 324 326 328 329 328 328 329
306 307 308 309 312 327 337 332 333 336 336 336 335 332 331 333 334 332 332 335 337 335 332 330 327 323 317 316 318 315 309 300 300 301 304 318 320 324 326 327 329 328 328
302 305 308 308 309 312 329 337 340 339 338 338 338 335 336 337 334 332 327 329 332 332 332 329 328 325 319 311 306 308 301 299 299 300 303 314 316 320 322 324 326 329 328
302 307 311 313 313 310 319 333 336 335 334 334 335 337 334 332 328 326 324 324 327 324 325 323 320 319 315 312 310 305 303 301 299 300 305 313 314 317 319 320 324 328 330
304 307 310 312 314 313 312 333 331 329 328 327 328 333 333 329 328 326 328 329 327 328 324 320 317 319 316 316 312 309 306 303 301 300 302 310 312 315 317 319 320 321 324
304 304 308 311 313 316 326 327 325 322 321 321 323 326 327 324 324 324 322 322 321 321 321 319 315 315 313 312 312 310 309 307 305 303 301 308 313 313 316 320 320 319 319
305 304 307 309 311 316 318 318 318 318 316 318 318 319 320 320 319 318 317 316 315 317 317 315 311 313 309 309 309 309 308 307 308 306 303 303 313 312 314 316 317 317 318
304 305 305 307 307 309 312 312 313 313 313 313 313 314 314 314 312 311 310 310 311 310 309 309 310 311 307 307 306 307 306 307 305 305 304 302 302 308 311 313 314 315 316
302 302 304 306 305 305 305 308 309 309 309 308 310 310 310 310 309 308 308 307 305 305 307 305 304 301 299 299 299 301 305 304 303 303 301 300 300 300 303 308 310 310 312
302 302 303 302 302 301 302 303 303 302 302 302 302 301 302 304 303 302 301 300 300 299 299 303 300 297 294 295 298 300 302 300 299 300 299 299 297 295 297 298 304 300 304
301 302 302 302 300 300 301 300 298 297 296 296 296 295 296 297 297 297 295 294 294 293 293 297 295 294 291 290 298 299 298 296 298 296 297 294 293 292 293 291 294 292 299
301 302 301 301 300 301 300 298 295 293 292 292 291 291 292 292 292 291 291 290 289 289 288 289 292 288 287 287 294 296 296 292 295 291 291 288 288 290 289 289 291 289 289
300 302 302 302 302 303 300 297 294 291 289 288 288 288 289 290 290 289 288 288 287 287 286 286 286 286 285 286 287 290 289 293 288 290 286 286 284 286 286 288 287 287 287
298 302 303 303 300 297 294 292 290 289 287 286 286 286 287 288 288 288 287 287 286 286 285 284 283 284 282 284 284 286 280 279 283 289 284 283 283 283 283 285 285 286 287
295 298 299 297 295 294 293 290 289 287 285 284 284 285 285 286 286 287 286 286 285 285 284 284 284 282 282 280 282 284 281 280 277 277 280 281 282 282 282 283 283 285 287
291 291 294 294 292 291 291 291 288 285 285 285 284 284 284 284 285 285 284 284 284 284 283 282 282 282 282 280 280 280 280 279 279 276 275 276 279 281 281 282 282 283 285
288 288 288 289 289 290 289 287 286 285 284 283 283 282 283 283 283 283 283 282 282 282 282 281 281 280 280 280 280 280 279 277 277 276 275 275 276 278 280 281 281 282 283

GFSSE_sfc_thetae_048.txt.gz
Theta_e
337 344 352 353 352 352 351 351 351 352 352 351 350 349 348 346 344 343 342 341 340 340 339 340 340 342 344 344 345 345 345 344 345 346 346 345 344 344 344 344 344 345 349
343 346 348 352 353 351 351 352 352 352 351 351 350 349 348 345 344 342 342 340 340 339 338 337 336 338 340 340 342 343 341 342 344 344 343 343 345 343 342 341 342 341 347
345 347 348 350 353 352 352 351 351 351 351 349 350 349 346 344 342 340 339 338 339 338 337 335 334 335 335 336 338 339 340 343 343 341 339 334 334 340 342 340 338 340 341
346 348 347 347 351 352 351 351 351 351 349 348 350 348 346 343 340 339 338 337 337 336 334 333 332 331 331 332 335 335 336 338 335 333 329 329 330 338 339 340 339 338 338
345 347 346 347 350 351 351 351 351 350 349 347 349 348 345 343 340 339 338 336 334 332 330 329 328 328 327 328 330 331 332 332 329 325 324 325 325 332 336 336 336 337 336
343 346 343 347 350 350 350 350 350 349 347 347 348 347 345 342 340 339 338 337 336 334 331 326 324 324 324 325 327 329 328 328 323 318 319 322 322 332 332 332 333 333 334
341 343 343 345 348 349 349 349 349 349 347 346 347 346 345 342 340 340 339 337 336 335 333 327 322 321 321 322 322 324 324 322 312 313 314 317 322 330 330 329 329 330 331
339 344 344 338 341 345 347 347 347 348 347 346 347 345 344 342 341 340 338 337 336 335 333 328 323 319 318 320 320 320 320 315 308 308 310 313 330 331 330 329 329 330 330
317 325 338 340 335 335 340 341 343 345 345 345 345 345 344 342 342 341 339 337 336 335 332 328 324 321 318 318 317 317 317 313 301 305 311 313 328 329 331 330 330 330 329
308 310 313 318 338 339 337 334 337 340 341 341 340 338 336 337 337 337 335 337 336 335 332 328 325 321 318 317 316 315 313 310 300 302 306 314 325 327 328 329 330 329 329
307 307 308 311 315 331 338 335 333 334 335 335 334 331 330 332 333 333 332 335 335 334 331 329 326 322 317 318 316 312 307 298 299 300 304 319 321 323 324 327 328 330 329
301 306 309 309 309 313 328 336 339 338 336 336 335 333 333 332 333 331 326 330 332 331 331 330 326 322 316 308 305 307 299 298 299 300 305 317 318 321 322 323 325 329 330
301 308 310 311 313 310 318 333 335 334 333 334 337 334 335 333 329 326 323 323 326 322 321 320 317 317 312 310 308 304 302 300 298 299 307 316 319 322 323 323 322 323 323
304 304 308 310 312 313 312 332 330 329 328 328 330 334 332 330 328 324 328 327 327 326 319 316 315 313 312 312 309 307 306 303 301 300 303 314 317 321 323 322 322 322 321
303 302 306 309 311 314 326 326 324 322 322 322 324 325 328 328 325 323 321 321 321 321 319 313 312 311 309 310 310 308 307 306 304 302 304 312 315 317 319 320 321 321 322
304 303 305 307 315 320 319 319 318 318 318 318 318 319 321 321 320 318 316 315 315 316 314 312 311 309 306 306 307 307 306 305 304 302 301 303 310 312 314 316 314 317 319
303 304 304 306 310 313 312 314 314 314 315 315 315 315 314 315 314 312 312 312 312 312 309 308 304 303 299 300 301 305 304 303 301 300 299 297 297 301 306 309 308 309 313
302 302 303 306 305 305 310 310 310 309 310 310 311 312 310 309 308 305 303 301 302 303 302 299 297 295 295 297 298 301 300 299 298 297 295 293 293 293 296 303 301 304 308
301 301 300 302 302 302 304 303 302 302 302 303 304 304 303 301 301 300 298 296 297 298 298 294 291 292 291 295 299 298 297 296 296 293 290 290 290 289 289 295 296 298 303
300 300 299 301 301 301 300 299 298 297 296 297 297 297 296 296 295 293 291 291 293 293 292 290 288 287 287 292 296 294 294 292 292 288 286 287 287 287 287 288 287 288 297
299 299 299 299 300 301 299 297 296 293 292 292 293 293 291 291 291 290 289 289 288 288 287 288 287 285 285 286 294 293 291 289 286 286 285 284 284 285 285 286 285 285 288
298 299 299 299 300 301 300 295 293 291 290 290 290 289 289 289 288 288 287 286 286 286 285 285 286 284 284 283 289 289 287 290 286 284 283 283 281 283 284 285 284 285 286
297 297 299 299 301 298 294 291 289 289 289 288 287 286 286 287 287 287 286 286 285 285 283 283 283 283 281 282 282 284 278 277 279 285 281 281 281 281 281 282 284 284 285
297 298 299 299 295 294 293 291 290 287 285 284 284 284 284 285 285 285 285 285 284 284 283 283 283 282 282 280 281 282 280 279 276 275 278 279 280 281 280 280 281 283 284
296 296 296 295 294 293 292 291 289 285 285 284 283 282 282 283 283 284 284 283 283 283 282 282 281 281 281 280 279 279 278 278 277 276 274 276 278 278 279 280 280 280 282
291 291 295 294 292 292 291 289 287 284 283 283 282 281 281 281 282 282 283 282 282 282 281 281 280 280 280 279 279 279 278 277 276 275 274 275 275 277 278 279 279 280 280

GFSSE_sfc_thetae_054.txt.gz
Theta_e
333 340 348 348 347 349 350 351 350 349 350 347 345 343 342 340 341 340 340 339 339 339 340 341 342 342 343 346 346 345 343 341 340 340 340 342 340 339 339 341 341 338 345
339 341 346 349 350 350 351 351 350 348 351 347 344 342 340 339 339 340 339 338 337 337 337 338 340 341 343 345 343 341 339 337 336 336 336 336 339 339 337 336 339 337 342
341 343 344 347 350 352 352 351 350 350 350 346 343 341 340 338 338 337 336 335 335 334 334 334 338 338 341 341 340 338 335 333 333 332 331 325 328 335 335 335 335 336 338
342 344 344 346 350 351 351 351 350 350 350 346 343 342 340 339 337 335 333 331 331 331 331 332 335 336 338 338 336 334 332 331 330 328 323 322 325 334 335 335 335 335 335
342 344 344 346 350 351 351 349 349 350 349 346 343 342 341 340 339 338 336 332 328 328 328 329 332 334 334 334 332 331 329 329 326 321 319 321 321 331 334 334 332 333 333
341 342 343 346 349 349 350 349 348 349 348 346 344 342 342 340 339 338 337 334 329 325 325 327 329 330 331 330 328 325 326 325 320 313 316 323 323 333 334 333 332 332 333
339 341 341 345 347 347 349 348 348 348 348 346 344 342 341 340 339 337 336 334 331 327 324 325 326 326 327 325 322 320 320 320 310 311 314 319 325 333 334 333 332 331 332
338 341 341 339 341 344 346 347 348 348 348 346 345 342 341 340 338 337 336 334 332 330 326 324 322 322 323 322 319 317 316 314 308 308 311 317 330 332 333 332 331 331 331
328 337 337 338 338 337 340 342 344 345 345 345 344 343 342 341 340 338 338 335 333 331 328 326 323 321 320 319 317 315 314 314 303 307 312 315 329 331 332 334 334 334 334
314 320 330 334 336 336 337 334 337 340 341 341 340 338 336 336 336 335 332 335 333 331 328 325 323 321 319 317 315 312 311 310 303 307 310 320 328 328 328 328 328 329 329
309 309 312 321 332 339 338 333 332 334 335 335 334 331 329 332 331 331 330 333 332 331 329 325 321 317 315 314 312 310 306 299 304 308 313 327 327 328 328 327 326 325 325
307 308 310 311 317 321 337 337 334 335 334 334 333 331 330 329 330 331 326 327 328 327 326 324 320 315 309 304 303 305 300 301 306 311 318 326 328 329 329 328 328 328 327
304 308 309 310 312 315 320 334 335 332 332 336 334 333 328 327 327 327 326 323 319 317 315 314 311 309 307 306 304 302 301 303 306 308 315 322 322 323 324 324 324 324 323
303 305 307 309 310 311 311 329 333 331 330 332 333 332 330 326 323 326 326 325 322 319 313 310 309 309 308 307 304 302 300 301 303 300 308 314 315 317 321 321 322 322 322
301 302 305 306 309 311 311 326 324 327 328 329 331 332 329 327 326 326 323 322 320 318 316 314 312 311 310 308 305 300 298 295 294 294 298 307 308 312 316 317 317 319 320
301 302 304 306 309 312 319 324 321 322 322 323 324 328 329 327 324 321 318 317 316 315 314 311 309 308 305 302 299 297 294 292 291 290 291 293 303 306 309 312 313 315 317
301 302 303 305 309 311 314 317 318 318 319 317 317 319 321 323 320 317 315 313 312 311 307 304 303 302 300 299 295 293 290 289 288 288 288 287 288 299 302 306 308 311 313
300 301 302 308 307 310 311 313 312 313 313 313 314 314 315 316 316 313 311 310 307 305 302 300 299 298 297 295 292 291 288 286 286 286 286 286 286 286 292 301 304 307 309
300 300 301 304 306 308 306 303 306 307 308 309 310 310 310 309 309 309 306 303 300 296 295 295 293 297 294 292 289 287 285 284 283 285 284 284 285 284 284 293 297 299 301
299 300 300 302 304 303 302 301 300 300 299 301 303 304 304 303 303 303 301 297 292 290 290 291 293 291 293 289 287 285 284 283 282 282 281 284 283 283 283 284 284 286 294
298 298 299 301 301 302 301 300 300 297 296 296 297 298 298 298 298 298 294 290 288 289 289 292 292 290 286 286 286 285 284 282 281 280 280 281 282 282 283 283 283 282 282
298 298 298 301 299 302 301 298 294 294 292 292 293 293 293 294 294 292 290 287 286 287 287 288 288 283 281 282 287 286 283 286 283 280 280 281 280 281 282 282 282 281 280
297 298 299 299 301 302 296 292 290 292 291 290 290 290 289 291 290 288 286 285 284 285 286 284 284 283 280 280 281 287 279 281 278 280 279 279 279 279 279 280 280 280 279
297 299 299 298 298 299 294 292 294 291 291 289 289 288 287 288 287 285 284 284 283 282 282 282 282 281 281 279 279 280 278 278 276 275 277 277 277 278 278 278 278 278 278
297 297 298 298 297 293 294 295 297 295 288 287 287 286 285 285 285 283 283 282 282 281 281 281 280 280 280 279 279 279 278 276 276 275 274 275 277 277 277 278 277 277 277
296 297 297 297 295 292 292 293 295 290 287 287 285 285 284 284 282 281 281 281 281 281 281 280 280 280 280 279 279 278 278 276 275 274 273 274 274 276 277 277 277 277 276

GFSSE_sfc_thetae_057.txt.gz
Theta_e
338 343 347 348 348 349 351 349 350 350 348 344 343 341 341 341 341 340 340 340 340 342 343 343 345 348 347 344 342 341 339 339 339 339 339 340 339 339 339 340 341 341 344
341 344 346 349 350 351 351 350 350 350 348 344 341 340 340 341 340 339 338 337 337 338 341 342 346 345 343 341 339 337 335 335 335 335 335 336 337 337 338 337 339 337 341
341 344 345 348 351 351 351 350 350 350 347 343 341 340 339 337 336 335 335 335 334 335 339 340 343 343 340 338 336 335 334 333 332 332 333 331 332 336 336 335 335 337 337
343 345 346 346 350 351 350 350 349 349 346 343 342 341 339 338 336 333 332 331 331 333 336 339 340 338 337 335 333 332 332 332 331 330 329 330 330 335 335 335 335 335 334
344 345 346 346 349 350 350 350 349 349 347 343 342 342 341 340 339 336 331 329 329 331 334 336 337 335 332 330 330 330 330 329 327 328 330 331 332 333 335 335 334 333 334
344 345 344 347 350 349 349 350 349 349 346 343 343 342 341 340 338 336 332 328 327 329 330 331 332 330 327 325 326 327 327 326 325 327 329 331 330 334 335 333 332 333 334
343 344 345 345 346 349 349 349 349 349 347 344 343 342 340 339 338 336 334 331 327 326 327 327 327 325 323 321 323 324 323 322 320 324 327 329 330 333 334 333 332 332 331
342 343 344 339 341 344 347 348 348 347 346 346 343 342 340 339 337 336 334 333 330 328 326 325 324 323 320 319 321 322 320 318 319 322 325 328 333 335 336 336 334 335 335
340 341 343 343 341 337 340 342 344 345 345 344 343 343 341 340 339 338 336 333 331 329 326 324 322 321 319 318 319 320 319 318 320 322 323 325 329 330 331 331 331 331 331
329 338 340 341 342 343 344 335 337 340 341 341 340 338 335 335 335 334 332 333 331 328 326 324 321 320 318 317 318 317 315 318 321 323 326 327 329 330 330 329 328 327 328
318 322 333 338 340 341 341 336 333 334 336 335 335 331 331 336 335 333 330 332 331 327 324 321 320 318 316 315 315 314 315 316 320 324 325 328 330 331 330 329 329 329 329
316 316 319 322 328 336 339 337 339 340 341 340 340 337 337 335 335 332 326 327 327 326 324 321 317 313 309 308 310 312 312 314 315 318 318 324 326 328 328 327 327 327 328
316 315 315 317 318 323 330 338 337 337 337 338 337 336 333 333 333 330 326 322 321 317 317 315 314 312 310 308 308 309 309 308 310 312 314 320 322 323 324 324 324 324 323
311 313 313 314 316 317 319 327 337 335 337 336 335 334 331 330 330 329 328 323 321 319 316 315 313 311 308 306 306 303 303 303 304 305 309 314 317 319 321 321 321 321 320
308 309 311 312 314 315 317 326 331 335 333 335 336 333 331 329 329 329 326 323 320 318 317 314 313 310 306 303 300 297 297 298 298 299 303 308 310 313 316 318 319 319 319
305 307 309 310 313 316 315 326 328 330 329 329 330 331 329 329 328 324 322 319 318 317 315 312 310 305 301 299 295 294 293 293 292 293 295 300 305 308 311 315 316 316 315
303 305 306 309 312 315 318 324 324 325 325 323 323 327 328 327 325 321 318 316 314 312 308 307 304 301 298 295 292 292 291 290 290 290 290 291 295 304 307 309 310 310 310
302 304 306 309 312 314 316 319 318 320 321 318 319 321 324 323 322 319 315 313 310 307 306 304 301 299 296 292 290 289 289 289 289 289 289 289 290 293 299 301 303 305 307
302 304 304 308 310 312 312 312 312 314 315 314 315 315 317 318 317 316 313 308 305 302 303 301 301 298 292 289 287 287 287 287 288 287 287 288 288 288 289 293 296 298 302
301 303 304 306 308 308 306 306 304 305 304 307 308 309 309 310 311 310 306 303 300 299 299 301 299 296 291 289 286 285 286 286 287 287 287 287 287 287 287 286 286 289 295
300 301 303 305 305 305 305 304 304 304 302 301 302 303 304 305 305 305 300 297 297 300 301 299 297 292 289 288 286 286 285 285 285 285 286 286 286 286 286 285 285 285 286
299 301 302 304 304 305 308 303 302 300 297 298 297 298 299 301 301 299 295 293 296 297 298 297 294 290 289 289 291 290 286 287 285 284 285 285 285 286 285 284 284 283 284
298 300 302 303 303 305 305 295 294 294 294 293 294 293 293 296 296 295 292 292 295 298 297 296 293 291 288 286 289 294 288 290 286 285 283 284 284 284 284 284 282 282 283
297 300 302 302 302 303 298 298 298 298 295 295 296 293 291 293 292 291 289 291 293 296 294 293 292 290 289 286 284 283 284 287 284 280 283 283 283 283 283 284 282 282 282
297 299 301 301 302 302 299 301 300 298 295 294 292 290 289 289 289 288 287 289 290 291 292 290 287 287 288 286 285 283 283 282 282 283 280 281 282 283 283 283 283 282 281
296 299 300 300 300 298 299 299 300 299 291 291 289 288 287 287 286 286 285 287 286 287 287 287 287 287 286 285 285 284 284 283 282 281 280 280 280 282 283 283 282 282 281

GFSSE_sfc_thetae_060.txt.gz
Theta_e
340 341 347 347 348 349 349 350 348 347 346 342 341 341 340 341 340 340 340 341 342 343 344 348 347 345 342 340 338 338 338 338 338 338 338 338 339 340 340 340 341 338 342
342 343 345 348 350 350 349 349 349 347 345 341 340 341 341 340 339 338 338 338 341 341 345 346 345 341 339 338 336 335 335 335 334 337 338 338 337 337 337 336 336 335 338
343 344 345 347 350 350 349 349 349 347 343 341 340 338 337 336 335 335 335 336 339 340 344 344 342 339 337 334 333 334 334 333 334 335 336 331 332 336 336 335 335 336 336
343 345 345 346 351 350 349 349 348 347 343 342 341 340 338 335 333 333 333 334 337 339 341 341 338 335 333 332 333 333 333 333 335 335 331 330 331 335 336 335 335 334 334
343 344 345 346 350 350 349 349 348 347 344 342 342 341 340 338 333 331 331 333 334 336 337 337 334 331 331 331 332 333 332 332 334 331 331 331 332 333 335 334 333 333 335
343 345 344 347 349 348 349 348 348 347 343 343 342 341 340 338 335 330 329 331 331 332 334 332 329 327 327 329 330 330 330 332 332 330 330 332 331 334 335 335 333 333 334
343 344 345 345 346 347 350 348 347 347 345 343 342 341 339 337 335 333 329 328 328 329 329 327 325 324 325 327 328 327 327 330 328 329 332 333 334 337 337 337 337 336 335
343 344 344 340 342 344 347 346 346 345 346 344 342 340 339 337 336 334 332 330 328 327 326 324 323 322 324 325 326 325 325 327 324 326 326 327 331 331 333 332 332 331 331
344 344 345 346 342 338 341 343 344 344 344 344 343 341 340 338 337 335 334 331 329 327 325 323 321 321 323 324 325 324 326 326 325 325 325 327 330 331 330 329 328 328 327
344 343 343 344 343 343 344 335 338 340 341 341 340 337 335 334 334 333 330 331 329 326 325 323 321 321 322 323 322 322 325 327 327 328 328 328 330 331 331 331 331 333 331
338 343 343 343 344 344 344 338 334 335 336 335 335 330 330 335 334 333 328 329 327 325 323 322 320 320 320 319 319 321 323 323 323 324 325 327 329 330 331 330 331 330 328
334 337 342 343 343 344 342 344 344 343 343 342 341 339 337 336 335 332 326 325 325 323 321 319 316 314 318 320 319 320 320 320 319 320 322 325 327 328 328 326 325 324 323
334 335 336 340 340 342 342 342 344 345 344 344 341 340 338 336 334 332 328 325 324 320 319 317 316 315 316 317 317 316 316 316 316 317 317 321 323 323 323 322 322 323 322
332 333 333 334 334 336 333 340 342 340 340 343 341 339 336 335 334 331 329 325 322 322 321 319 316 314 313 312 312 311 312 311 312 312 311 315 319 321 322 321 320 320 318
329 330 329 329 330 330 333 333 336 342 340 339 338 334 334 333 331 329 327 324 321 320 320 316 311 309 308 307 307 307 305 305 307 307 308 310 315 317 319 319 318 317 315
328 328 327 324 327 327 329 332 338 338 341 340 341 337 335 334 331 329 325 321 320 319 318 315 307 303 303 303 301 299 298 299 300 302 304 307 311 312 313 314 314 314 314
325 325 322 321 322 323 326 329 334 336 337 339 334 336 335 333 330 327 326 320 317 315 312 308 304 300 299 299 297 296 296 295 295 295 297 303 304 304 306 309 310 311 311
321 318 319 315 317 320 323 326 331 333 332 334 334 331 331 330 328 326 325 319 313 313 309 305 301 299 300 298 295 294 294 294 293 293 294 296 298 298 301 303 305 307 308
314 313 313 314 315 317 320 322 325 327 330 330 329 327 329 326 325 323 320 315 313 314 310 305 301 300 298 295 293 293 293 292 292 292 292 292 292 293 294 296 298 301 303
312 311 312 313 315 317 319 320 320 318 321 325 325 322 321 323 323 319 314 310 309 312 307 303 300 301 297 293 290 290 291 291 292 291 291 291 291 291 291 291 292 295 298
309 310 310 311 313 316 316 315 315 311 311 313 315 314 315 315 315 313 310 305 304 306 308 303 300 297 294 293 291 289 289 290 290 290 291 290 290 289 289 289 290 290 291
307 308 309 310 312 314 315 316 315 314 308 312 309 308 308 309 310 310 306 306 303 306 305 302 300 296 293 294 294 291 286 287 288 289 290 289 289 289 288 288 288 288 290
306 307 308 309 311 313 314 314 307 302 301 302 302 302 302 305 303 303 303 301 303 305 305 304 301 298 292 294 297 299 292 292 287 287 287 288 288 289 288 287 286 287 288
306 308 308 309 310 312 313 309 309 306 305 306 305 300 299 302 301 299 296 297 301 306 306 305 302 300 298 294 294 293 292 296 291 283 286 286 287 287 288 287 286 285 286
306 307 308 308 309 310 312 311 311 311 312 306 303 298 297 297 297 295 294 296 299 302 306 304 301 300 298 298 297 291 289 289 291 288 283 283 286 287 287 287 286 286 286
305 305 307 307 307 309 309 310 310 310 311 307 301 297 295 296 293 292 290 293 296 299 303 302 300 298 299 298 296 292 290 289 288 288 286 285 285 285 286 287 286 286 286

GFSSE_sfc_thetae_063.txt.gz
Theta_e
339 341 345 345 344 344 346 346 345 345 341 341 340 341 340 340 341 341 342 343 345 348 347 344 342 340 339 337 337 338 338 337 339 339 339 338 339 339 338 339 339 337 342
340 340 345 346 347 346 347 347 346 345 341 341 341 340 339 339 339 339 340 343 345 346 345 343 341 338 336 335 335 335 335 335 338 339 338 338 338 337 337 336 336 334 337
339 341 343 348 348 347 347 348 347 344 341 340 338 337 337 336 336 337 339 342 345 344 342 340 338 336 334 334 334 334 334 334 337 338 337 331 333 336 336 335 336 336 336
342 343 343 345 349 348 348 347 346 344 341 340 339 337 335 334 334 335 338 339 342 342 340 337 336 334 333 334 334 334 334 335 337 336 331 330 330 336 336 336 335 335 334
343 344 345 347 350 349 347 346 346 345 342 342 341 340 335 333 332 334 336 337 338 338 336 334 333 332 333 334 334 334 334 337 335 330 330 331 330 334 335 335 335 335 337
342 344 344 348 350 349 348 347 346 344 343 342 341 340 337 332 331 332 333 334 335 334 332 330 330 330 331 332 331 331 332 336 334 334 334 335 336 340 340 338 335 335 335
341 344 344 347 348 348 348 347 347 346 344 342 341 339 337 334 330 330 331 331 331 329 327 327 328 329 330 329 329 330 332 333 330 328 328 329 330 335 335 334 332 331 331
341 343 342 339 342 344 347 346 345 346 345 343 340 339 337 335 332 331 329 329 329 327 325 325 326 327 328 328 328 329 330 328 324 324 325 325 330 329 330 329 329 330 330
340 342 342 343 341 338 341 342 342 343 344 343 342 340 338 337 336 333 332 329 327 325 324 323 325 327 328 328 328 329 329 329 328 329 329 330 333 334 335 333 332 331 329
339 340 340 342 343 342 343 336 338 340 340 341 339 336 334 334 333 332 329 329 327 325 324 323 324 326 327 326 326 328 327 327 326 327 327 328 332 333 334 331 328 327 325
337 340 341 340 341 341 341 338 334 335 336 335 333 330 329 332 331 330 327 328 326 325 324 324 324 324 322 322 324 325 323 322 324 325 326 328 329 330 330 327 326 325 323
336 338 338 340 341 342 340 342 342 342 341 340 338 334 334 333 332 329 323 324 325 324 322 321 322 322 322 321 320 322 320 320 320 320 323 326 326 325 326 324 324 322 320
334 337 339 338 341 341 341 343 343 343 342 342 339 337 336 332 332 329 325 322 320 318 316 316 317 318 319 319 318 318 318 319 316 315 316 323 322 324 324 322 321 320 318
332 335 337 339 340 341 342 341 342 342 343 341 340 339 338 336 331 329 327 326 324 323 321 320 317 317 316 316 315 314 314 315 314 314 313 317 322 322 322 320 318 317 317
330 333 335 338 339 339 340 340 341 341 342 343 342 340 339 334 332 330 329 325 322 323 321 318 316 313 311 311 311 310 309 310 309 310 311 313 318 318 318 318 317 317 315
332 332 335 336 337 337 337 338 339 339 340 341 342 339 336 334 332 329 325 323 321 321 318 314 310 306 307 307 303 303 303 305 305 307 309 308 312 312 314 315 315 315 314
332 333 333 333 334 335 333 335 336 339 339 340 341 340 335 334 332 328 324 321 320 317 314 309 305 304 303 302 299 298 298 298 299 302 304 304 304 307 309 311 312 312 312
331 331 332 330 330 331 332 333 333 336 337 338 339 340 338 333 332 327 323 320 319 313 308 305 303 301 300 300 297 297 296 295 296 296 298 299 299 300 303 306 307 308 309
327 329 330 328 326 327 329 331 332 334 334 336 337 337 336 335 331 327 324 319 315 311 307 305 304 302 299 298 296 295 295 294 294 293 293 294 295 296 296 300 301 303 305
324 326 326 325 323 324 325 325 327 330 328 332 333 331 331 329 328 325 322 316 315 311 310 307 304 301 298 297 294 293 293 293 294 293 291 291 292 292 292 293 295 296 300
318 318 319 319 319 320 319 319 320 319 319 323 326 325 327 326 324 323 317 313 312 309 307 305 302 298 295 296 293 291 290 291 291 291 292 291 290 290 290 291 291 292 293
314 316 315 315 315 316 318 319 319 319 317 317 318 318 320 318 320 317 314 311 309 307 305 303 299 296 294 295 294 292 286 287 289 290 291 290 289 289 289 289 289 290 291
311 313 313 314 314 315 317 317 317 316 315 311 311 311 310 313 314 313 311 308 308 308 304 301 298 296 294 294 297 298 289 289 286 288 289 289 289 289 288 288 287 288 289
311 313 313 313 313 314 316 315 315 310 308 311 313 309 307 307 307 309 308 309 309 308 304 301 299 298 297 293 297 298 296 294 288 282 287 288 289 288 288 287 286 286 287
312 313 313 312 313 313 315 315 314 310 312 314 314 308 307 304 304 302 299 301 304 306 304 303 300 300 299 296 297 296 294 295 295 289 283 284 286 288 288 287 287 286 286
313 312 312 311 311 312 313 314 313 311 312 313 311 309 304 302 298 299 299 300 301 303 304 304 301 301 300 299 299 295 292 289 288 289 287 284 283 285 287 287 287 286 286

GFSSE_sfc_thetae_066.txt.gz
Theta_e
334 339 345 343 342 344 345 345 343 343 343 341 340 340 341 341 342 343 344 347 347 345 343 340 340 339 338 338 338 338 338 338 340 339 339 338 339 339 339 338 339 335 340
337 338 344 346 344 344 345 346 344 344 342 340 340 340 340 340 341 342 344 346 345 343 341 339 337 336 336 336 336 336 337 339 340 338 338 338 339 337 337 336 336 334 337
337 339 343 347 345 345 346 346 344 343 340 339 338 338 338 338 339 341 343 345 344 341 339 337 336 336 335 335 336 336 337 339 338 337 336 329 330 336 337 337 338 336 337
337 339 341 346 347 346 346 346 345 343 340 338 337 336 335 336 338 339 342 343 340 337 337 336 335 335 335 336 335 336 339 338 336 334 327 327 329 336 337 337 339 339 338
338 340 342 346 348 347 347 346 345 344 342 341 338 335 334 335 337 338 339 339 336 336 335 334 334 335 334 335 335 335 339 339 336 332 332 331 331 337 340 337 336 335 336
340 342 343 347 349 348 347 347 345 343 342 340 339 335 333 334 335 336 337 336 334 332 332 332 333 333 333 333 333 334 339 336 332 327 328 332 332 337 336 334 332 331 332
338 342 345 347 348 347 347 347 346 345 341 340 339 336 333 333 333 333 334 332 330 329 330 331 331 331 331 331 331 332 335 331 322 321 322 325 327 332 331 333 332 332 331
339 341 344 340 343 345 345 346 346 345 344 341 339 337 334 332 331 331 331 329 328 327 328 330 330 329 330 331 333 334 332 328 322 320 319 321 329 333 335 333 330 328 327
340 338 339 341 341 338 341 341 342 343 343 341 340 339 337 335 334 332 331 328 326 326 327 328 329 329 331 331 332 331 329 328 324 326 327 328 334 335 333 330 327 325 324
336 338 337 338 340 340 339 335 337 339 340 339 338 335 333 332 332 331 328 328 326 325 326 328 328 329 328 329 330 328 326 326 321 323 326 329 333 332 331 328 324 323 322
334 335 336 338 338 337 339 335 333 335 335 334 332 329 326 327 325 325 326 327 326 325 326 327 327 325 324 325 326 324 322 319 320 323 324 329 329 329 328 324 323 322 320
330 333 336 338 338 337 338 337 338 338 336 335 332 328 329 327 326 323 321 324 325 325 325 326 324 324 320 315 315 320 317 314 316 318 321 326 326 327 325 322 321 320 319
330 334 334 336 337 337 337 338 337 338 337 336 332 329 330 326 324 321 318 316 315 316 315 315 316 315 314 313 313 314 315 313 312 312 316 324 324 323 323 321 320 319 318
327 330 333 335 336 337 338 337 336 336 336 336 335 331 330 328 324 321 318 316 314 313 311 312 312 311 310 311 309 308 309 310 310 310 312 319 322 321 320 320 319 318 317
325 328 330 332 335 335 336 338 336 336 335 335 335 334 333 330 325 322 322 320 317 317 315 311 309 308 307 307 305 305 305 304 305 306 305 314 318 318 319 318 318 317 316
325 326 330 330 332 334 334 333 335 336 336 335 335 334 333 331 328 325 323 320 318 318 315 312 307 305 303 301 300 300 300 301 302 303 301 304 314 315 316 316 316 315 315
324 326 328 330 331 331 332 332 334 333 335 336 335 334 332 331 329 325 321 319 318 315 310 306 303 301 300 297 294 294 295 295 297 300 299 298 299 310 312 313 313 313 313
323 326 327 330 330 329 329 329 329 330 332 332 334 335 332 331 329 325 321 319 317 311 306 304 302 300 296 295 291 291 291 291 292 293 295 295 295 297 304 308 309 309 310
322 326 326 326 326 328 327 327 327 327 329 329 331 332 333 332 329 325 321 318 315 309 305 302 300 299 296 294 291 290 289 289 289 290 289 290 293 293 294 302 303 305 306
318 323 326 326 324 323 323 323 324 325 328 329 329 329 333 332 330 326 322 317 313 309 305 302 300 299 294 294 292 289 288 288 288 286 286 288 288 288 289 291 292 295 302
313 318 324 324 322 321 320 319 317 318 317 320 323 326 327 327 327 326 321 314 312 309 306 304 300 297 293 293 290 286 286 286 286 286 286 285 286 287 287 287 287 288 291
310 314 317 321 320 320 320 318 316 314 313 317 316 319 322 323 324 323 318 314 313 311 307 303 299 295 293 292 289 286 281 283 284 286 285 286 284 285 285 286 286 287 287
306 309 312 315 317 317 315 314 311 311 309 308 312 315 315 317 319 319 316 313 312 311 307 303 299 296 291 291 292 290 283 282 281 283 284 285 284 284 283 284 285 286 286
306 308 310 309 309 311 312 312 311 310 309 308 309 311 313 312 314 314 314 311 311 310 307 303 300 297 294 291 292 295 290 285 281 277 282 283 284 284 282 283 283 284 284
304 304 305 307 308 309 310 311 310 309 307 305 306 306 307 306 309 309 310 309 309 309 307 303 299 298 296 294 294 292 289 287 286 280 277 279 281 283 283 282 283 282 283
304 304 304 305 306 308 309 310 309 309 304 304 305 304 304 303 304 303 304 307 309 308 306 303 301 299 297 296 296 293 289 286 284 282 279 278 279 280 282 283 282 282 282

GFSSE_sfc_thetae_069.txt.gz
Theta_e
331 336 345 344 344 345 346 344 343 344 343 340 341 341 342 342 345 347 346 346 343 339 340 339 338 339 339 339 339 338 338 338 339 339 338 339 339 340 339 340 339 333 341
335 339 344 344 343 345 347 343 344 344 342 341 340 340 341 343 344 346 345 345 341 339 338 337 337 338 338 337 338 339 339 339 338 338 338 339 338 337 337 340 338 333 337
336 339 343 346 345 344 347 345 344 343 340 339 339 339 340 341 344 345 343 344 339 338 337 336 336 337 337 338 340 341 340 339 337 336 335 328 330 337 337 339 341 341 339
336 339 343 345 346 345 347 345 344 342 339 337 337 337 338 340 342 344 341 341 337 336 336 336 337 337 337 338 340 340 337 336 336 333 327 332 335 340 340 339 338 338 338
336 339 342 345 347 347 347 345 344 343 340 337 336 336 338 339 340 340 339 337 336 335 335 336 336 336 336 336 339 338 337 335 335 333 331 331 331 335 337 335 333 333 334
336 340 342 346 347 347 347 345 344 342 340 338 336 335 337 337 338 338 336 334 333 333 334 334 335 335 334 337 338 336 334 331 329 327 329 330 328 334 335 333 332 331 330
337 339 344 345 347 347 347 346 345 341 340 339 335 335 335 335 336 335 333 331 331 332 332 332 333 332 334 334 336 331 329 328 319 318 319 321 326 333 334 332 330 328 327
339 342 344 340 342 344 345 345 344 342 341 340 335 334 334 333 334 332 330 329 330 331 331 331 332 333 334 334 333 332 331 328 323 320 320 324 333 333 331 328 326 325 324
340 341 342 342 341 338 340 341 342 342 341 340 339 336 335 334 334 331 330 328 329 330 330 330 332 332 333 332 331 330 328 327 322 323 328 329 332 331 328 326 325 323 323
335 337 338 338 340 340 339 335 336 338 338 338 336 334 331 332 331 330 328 328 328 329 329 330 330 330 330 329 327 327 325 324 320 326 326 328 331 328 326 324 323 322 321
335 335 335 335 337 338 338 334 332 333 333 332 330 327 325 324 323 323 325 327 328 328 328 329 327 326 325 326 325 322 319 315 320 323 324 328 328 325 325 323 321 321 320
327 333 336 335 335 336 339 334 335 335 333 331 329 326 325 323 322 323 321 325 327 327 327 326 325 323 317 313 316 318 311 310 313 315 322 327 326 324 322 321 320 320 318
327 330 334 336 335 334 336 336 336 335 333 330 327 326 325 322 320 319 317 316 317 318 320 320 315 313 312 311 311 313 312 311 311 312 319 325 324 322 322 319 319 318 317
327 328 332 336 335 335 336 337 336 335 334 331 328 327 325 322 319 316 315 313 312 311 309 310 309 309 308 308 309 309 309 309 308 308 313 320 321 321 320 319 318 317 316
324 328 330 333 335 335 334 335 336 335 334 333 331 330 328 324 319 316 315 315 313 310 311 308 307 307 304 304 304 304 304 306 305 304 306 315 318 319 319 318 317 316 315
324 326 328 330 333 335 335 335 334 335 335 334 332 331 330 327 322 318 317 316 314 316 314 310 307 304 301 301 299 300 301 302 301 301 299 302 316 317 317 318 316 316 315
323 326 327 329 330 330 333 333 334 335 335 334 333 331 331 329 324 321 320 319 318 314 312 307 304 301 299 297 294 295 297 299 299 297 297 297 298 310 314 314 314 314 313
320 322 327 330 329 330 330 331 333 333 334 334 333 333 331 329 326 323 321 319 317 311 308 305 302 298 296 295 291 290 290 292 293 294 294 295 295 296 305 310 311 311 312
319 323 324 328 328 328 327 328 328 329 331 333 334 333 331 330 327 324 321 319 314 309 306 303 301 297 294 292 291 288 288 288 288 290 290 293 294 293 294 303 305 308 308
317 322 325 326 328 328 326 324 323 323 326 330 330 332 331 330 328 325 321 317 312 307 304 302 300 297 294 292 291 288 286 286 286 286 286 289 290 290 289 291 291 296 305
315 318 323 323 324 326 324 322 321 324 323 321 325 329 331 331 329 326 321 317 312 308 304 302 300 295 293 291 289 288 287 285 285 284 284 284 285 286 286 287 287 288 291
313 317 322 324 323 325 326 326 325 320 315 320 316 320 330 330 329 327 322 316 313 310 305 302 300 295 293 291 289 287 283 283 284 285 284 284 283 284 285 285 285 287 286
306 312 318 322 322 323 323 316 311 311 309 311 311 313 318 324 326 326 321 317 313 312 306 303 300 297 292 291 291 291 283 284 281 283 283 283 282 282 282 283 284 286 286
305 310 315 318 319 320 318 316 317 317 315 317 318 317 310 315 320 322 319 316 314 313 309 304 301 299 296 291 291 293 291 287 283 280 283 282 282 282 281 281 282 284 284
302 303 306 308 312 315 315 315 315 314 314 303 304 306 307 306 312 313 315 314 313 313 311 306 302 300 297 295 294 293 290 288 286 282 279 280 280 281 281 281 281 281 283
299 300 302 305 305 307 312 310 311 311 303 302 302 304 304 303 306 309 309 312 313 312 310 306 303 300 297 297 296 296 294 289 287 284 280 280 280 279 280 280 281 281 281

GFSSE_sfc_thetae_072.txt.gz
Theta_e
329 335 346 346 347 346 343 343 342 344 342 341 342 342 342 347 346 345 345 341 339 339 338 339 339 339 339 337 337 338 339 339 339 340 340 341 340 339 338 340 338 332 339
332 337 345 345 346 346 343 343 344 344 341 341 341 343 344 346 346 345 341 341 338 337 337 338 339 337 338 338 337 336 336 336 337 338 338 339 340 337 338 341 338 333 337
333 339 342 345 346 346 344 344 344 342 340 340 340 342 343 346 345 343 340 339 337 336 337 338 338 338 338 339 338 336 335 335 336 336 335 330 331 341 342 341 342 341 340
335 339 342 344 347 346 345 344 343 339 338 338 339 340 343 344 342 340 339 337 336 336 337 338 338 338 338 340 337 336 335 334 334 336 333 332 333 339 339 338 338 338 337
335 339 342 344 347 346 345 344 342 339 337 337 338 339 341 343 340 338 337 335 335 335 337 338 337 336 337 338 337 337 336 336 336 331 327 328 328 334 336 335 333 332 332
335 339 341 345 347 347 345 342 341 340 337 337 337 338 339 340 338 336 335 334 334 334 336 337 335 338 338 338 337 335 334 332 331 325 326 329 327 334 334 331 330 330 329
334 339 341 344 346 346 345 343 341 340 338 336 337 337 337 338 336 334 333 333 333 333 335 335 334 335 336 335 332 331 329 327 317 317 319 327 328 332 331 330 328 327 327
335 340 341 339 342 344 344 344 343 341 339 337 336 335 336 336 333 331 331 331 332 331 333 334 335 334 333 332 331 330 329 327 323 321 323 326 330 329 329 327 325 325 324
338 340 340 341 340 338 340 340 340 340 340 337 337 336 336 335 333 330 331 331 331 331 332 333 334 333 333 332 331 329 327 327 322 326 327 324 328 328 326 325 324 323 323
339 340 339 339 339 339 338 334 335 337 338 337 335 333 331 331 331 330 328 330 330 330 331 332 332 331 331 330 327 325 323 323 324 326 326 324 327 325 325 323 322 322 321
336 337 337 337 338 338 336 333 332 332 333 332 330 327 324 323 322 321 324 329 329 330 330 330 329 328 326 325 323 320 317 313 320 323 323 326 326 323 324 322 320 320 319
329 332 335 335 336 337 338 333 333 332 331 328 326 323 321 320 320 321 320 326 328 328 329 327 324 322 316 313 314 315 309 310 315 318 322 325 325 323 322 320 320 319 318
329 331 333 334 335 335 336 333 333 332 329 327 324 322 321 319 319 317 317 318 319 320 319 316 313 311 311 310 310 312 309 311 311 313 322 324 322 322 322 319 318 318 318
324 330 332 333 334 334 335 334 335 333 330 327 324 324 321 318 316 315 315 314 314 314 312 310 309 308 307 308 307 307 309 308 308 310 312 320 322 321 321 319 318 317 316
324 326 331 333 333 333 333 334 335 334 332 328 325 325 322 319 316 315 313 313 313 310 309 307 306 305 304 304 304 304 306 305 305 306 308 315 320 319 320 319 319 316 316
326 326 329 331 333 333 333 333 334 334 333 331 327 328 323 321 319 315 313 311 311 313 312 309 306 302 301 302 301 302 301 301 302 302 302 306 317 319 318 318 318 316 315
324 327 327 330 331 331 332 333 333 334 333 332 330 329 327 324 319 317 315 313 311 314 311 308 303 300 298 300 298 299 299 298 297 299 297 298 300 312 317 316 315 315 313
320 323 327 330 330 330 332 333 332 333 333 333 332 329 329 327 322 318 316 315 315 313 309 306 302 299 298 298 296 296 295 295 295 296 296 296 296 298 306 313 313 312 312
318 321 324 327 328 329 330 332 332 332 332 333 333 332 330 328 324 321 320 317 315 311 307 305 301 299 295 293 291 291 291 292 290 293 294 294 295 294 294 303 306 310 310
316 320 322 326 327 328 329 329 329 331 332 333 333 333 331 330 325 323 322 319 315 310 306 303 300 297 295 293 291 288 287 289 287 288 290 292 292 291 291 292 292 296 308
312 315 320 322 326 327 324 324 326 326 327 328 332 332 332 331 328 325 322 318 314 309 306 302 297 293 292 291 289 288 288 288 286 287 287 288 288 288 289 289 288 289 293
309 314 318 321 325 326 328 328 328 327 319 325 324 327 331 330 329 327 323 318 313 310 306 302 299 294 292 291 289 288 284 285 286 285 286 286 284 285 286 286 286 288 288
301 309 315 321 323 325 327 321 312 311 310 313 313 322 328 329 328 326 324 319 314 312 306 303 300 297 293 291 291 291 283 284 281 285 285 284 285 283 284 284 285 286 286
299 304 313 318 321 323 324 322 322 321 319 320 324 320 314 320 327 326 324 319 316 313 310 305 303 300 297 291 291 292 290 287 284 280 284 283 284 284 281 284 283 284 284
297 299 305 311 317 320 321 322 320 321 321 311 307 310 309 312 316 321 321 318 316 314 312 308 305 301 299 296 294 294 291 287 287 284 281 280 283 284 284 284 284 284 284
298 297 301 306 309 312 317 317 317 318 312 303 302 305 305 306 314 312 313 317 316 314 314 310 307 303 301 300 296 298 293 290 285 284 282 282 283 283 284 283 283 283 283

GFSSE_sfc_thetae_075.txt.gz
Theta_e
328 335 345 345 342 339 340 342 342 344 342 343 343 347 347 346 343 341 340 339 338 338 339 339 339 338 338 339 340 340 340 340 341 341 341 340 339 339 338 338 338 332 339
330 336 344 346 347 344 343 343 344 343 342 342 342 346 346 345 342 341 339 337 337 338 339 339 338 339 337 336 337 337 337 337 337 339 338 338 342 338 338 339 341 336 339
331 338 343 345 347 343 344 343 343 342 340 341 343 345 345 344 342 340 338 336 336 338 338 337 338 339 338 336 335 334 335 336 337 339 337 332 336 341 342 340 341 339 338
334 339 340 344 347 344 343 342 341 339 339 340 342 345 345 343 340 339 337 336 336 338 338 338 339 338 337 335 335 334 334 337 335 333 331 331 333 340 339 338 337 336 335
335 338 341 344 346 343 342 341 339 338 338 338 340 343 343 340 338 337 336 335 335 337 337 336 338 338 337 336 335 337 337 335 332 328 325 325 328 334 336 334 333 333 332
335 339 340 345 345 343 343 340 339 338 337 338 338 341 341 338 337 335 335 335 335 336 336 334 337 337 337 337 336 336 334 331 326 322 325 330 328 333 332 331 330 329 328
334 337 340 344 345 345 343 342 341 338 337 338 338 338 338 336 334 334 334 334 333 335 334 336 339 338 336 335 334 332 329 326 318 320 324 326 327 331 331 330 329 327 325
334 338 340 338 341 343 343 342 342 340 338 338 337 337 337 335 333 333 333 332 332 334 333 335 336 334 332 332 331 330 329 327 323 322 322 323 328 329 328 326 325 324 324
335 338 338 339 339 337 339 339 339 340 338 338 338 338 337 334 333 332 332 331 331 333 333 334 334 333 333 331 331 329 328 328 323 322 321 322 327 326 326 324 323 323 323
335 337 336 337 338 338 337 332 334 336 336 336 335 333 332 331 331 331 330 331 331 332 332 333 332 332 331 330 328 325 323 325 325 323 322 322 325 326 324 323 321 321 320
335 337 337 337 337 337 335 331 330 332 332 331 329 326 324 322 321 321 325 330 331 331 331 331 330 329 326 325 323 321 318 318 322 321 322 325 324 323 322 321 320 320 319
331 334 336 336 337 336 337 331 331 331 329 327 324 322 320 318 318 320 322 326 329 329 330 329 327 322 316 312 313 315 310 314 318 320 322 325 323 323 321 320 319 319 318
331 333 334 335 336 337 335 333 331 329 326 324 322 320 319 318 317 317 318 319 319 320 317 316 313 311 311 310 309 310 309 311 314 316 321 324 323 323 320 320 318 318 317
326 330 332 333 334 335 336 334 334 331 326 324 321 320 318 316 315 315 315 315 316 314 311 309 309 308 309 308 307 310 309 310 311 312 314 321 322 322 321 319 318 317 316
323 327 330 332 332 334 334 334 333 332 329 325 322 321 319 316 315 314 313 313 313 311 309 308 306 306 306 305 305 305 306 306 308 309 311 317 321 321 321 319 316 316 315
325 326 329 330 332 333 333 333 332 332 331 326 323 322 319 318 315 314 313 312 311 310 309 307 305 304 303 303 303 303 302 302 303 305 306 312 319 320 319 320 317 316 315
324 326 327 330 331 331 331 331 333 332 331 330 324 323 321 319 316 316 315 313 310 311 309 307 303 302 300 301 301 302 299 299 299 299 300 301 307 317 319 319 317 315 314
320 323 326 330 330 330 330 331 332 333 331 330 329 325 323 321 320 317 315 314 313 312 309 306 303 301 301 301 299 300 299 297 296 297 297 298 299 301 313 317 316 314 314
319 320 324 326 328 328 329 330 331 332 332 331 331 328 326 325 322 318 316 315 314 312 308 306 302 301 299 296 296 295 295 295 294 297 297 296 297 297 298 308 312 314 313
314 318 322 325 327 328 329 329 329 330 331 332 331 330 328 326 324 320 318 316 314 312 308 305 301 297 294 293 293 290 290 290 291 292 295 295 295 294 293 294 295 298 312
310 312 316 320 325 326 326 326 328 328 329 330 331 330 329 329 326 322 321 318 315 311 308 305 299 295 292 291 290 288 288 288 288 289 291 292 293 292 291 291 292 293 298
305 311 314 318 322 325 327 328 328 327 329 331 331 331 331 330 328 325 323 319 315 311 308 304 300 295 292 293 291 288 286 285 286 287 287 288 289 289 290 289 289 290 291
296 303 311 316 319 323 326 323 312 313 311 317 320 327 329 330 329 327 325 321 316 313 308 305 302 299 294 292 292 292 284 286 282 284 286 285 286 288 286 289 288 290 289
294 296 304 310 316 320 323 322 323 323 322 321 325 323 326 328 328 327 326 323 318 315 311 306 305 301 300 291 292 293 292 289 286 284 284 285 285 286 287 287 288 288 288
296 295 296 306 312 316 320 323 322 322 324 316 313 314 314 320 324 326 325 322 318 315 313 308 305 302 302 299 295 294 292 288 288 285 282 282 283 284 287 286 286 287 287
295 296 298 302 307 312 315 317 318 320 316 308 306 310 309 314 319 316 319 321 319 316 315 311 307 303 303 302 298 300 295 294 288 285 283 282 281 284 285 285 286 286 287

GFSSE_sfc_thetae_078.txt.gz
Theta_e
326 336 344 342 343 343 343 343 343 345 346 345 348 347 345 343 341 340 339 339 341 340 339 338 339 340 340 339 339 341 342 342 342 341 341 340 339 340 340 340 340 335 341
329 337 345 346 342 341 342 342 344 345 345 343 347 346 344 342 340 339 338 340 341 339 339 338 337 337 337 336 337 337 337 337 338 340 341 342 340 341 341 340 339 335 340
333 338 342 346 346 345 344 344 344 344 343 345 347 345 344 342 340 338 337 340 340 338 336 339 339 337 335 335 336 336 337 338 338 338 338 333 337 341 341 338 337 336 337
334 339 341 344 345 344 342 342 342 340 342 344 346 346 344 341 339 337 336 338 339 339 340 340 338 337 335 333 335 337 338 336 334 333 330 330 334 339 339 337 337 336 336
335 338 340 344 345 343 341 340 339 339 339 342 345 344 341 340 336 336 336 337 338 337 338 339 338 337 335 336 337 337 336 334 332 329 326 327 330 334 335 334 332 331 331
334 338 340 345 344 342 341 339 338 338 338 340 343 342 340 338 335 335 335 336 336 336 335 339 337 337 337 338 336 335 333 331 328 324 325 329 328 333 333 330 330 329 329
333 337 339 344 344 343 342 340 339 338 338 338 341 340 336 335 335 334 334 335 336 332 337 339 339 337 337 335 334 332 331 329 321 321 325 326 327 332 331 329 327 326 326
333 336 339 338 340 342 342 342 341 340 339 339 339 337 336 335 334 333 333 333 333 331 334 338 336 334 334 333 332 331 330 326 321 319 320 324 328 329 328 327 326 325 324
334 335 337 338 337 336 338 338 339 339 339 339 339 338 335 334 334 333 333 333 333 331 334 335 334 333 333 332 331 331 329 326 318 319 321 321 327 327 326 325 324 323 322
332 334 335 335 336 335 335 332 334 335 336 336 336 333 331 331 332 331 330 332 332 332 335 334 333 332 331 331 329 327 327 326 319 320 319 322 326 325 325 323 322 321 321
332 333 335 337 335 334 333 329 329 331 331 331 329 327 324 322 322 323 325 331 333 332 331 330 330 329 328 326 325 323 321 320 320 320 320 325 325 323 323 322 321 321 320
329 332 334 335 337 333 335 329 330 329 327 326 324 322 320 318 317 321 322 327 329 328 328 329 328 323 317 312 314 317 313 318 319 320 320 326 324 322 321 320 319 319 319
330 331 333 333 335 336 333 330 328 327 325 323 321 320 318 316 316 318 319 319 320 319 319 320 315 312 311 310 310 311 312 315 317 318 322 325 323 322 320 320 319 318 317
329 331 333 333 333 335 335 333 332 329 323 321 319 318 316 314 314 315 316 316 316 314 311 310 309 309 309 309 309 310 312 313 314 315 318 321 323 321 321 319 318 316 316
328 330 332 332 332 334 334 334 333 331 326 322 319 318 317 314 313 313 314 314 314 311 309 308 307 307 307 306 306 307 308 310 311 312 315 318 322 322 320 320 318 317 315
325 327 330 330 332 333 332 332 332 332 330 323 320 319 317 316 313 313 312 312 312 311 308 307 305 305 304 304 304 304 304 304 306 308 313 313 321 322 321 320 317 317 316
323 324 326 329 330 332 331 332 331 331 331 328 322 320 318 316 314 313 312 312 312 311 308 308 305 305 304 304 304 303 302 302 301 303 304 305 313 319 321 320 318 318 316
319 322 325 329 328 329 331 331 331 331 331 330 327 322 320 318 316 316 316 315 314 312 310 307 304 303 303 303 302 302 301 300 300 299 299 300 302 305 314 320 318 317 316
318 319 322 326 327 328 328 330 331 331 330 330 330 325 321 319 318 318 316 316 313 312 309 307 302 302 300 299 299 297 296 297 298 298 298 298 300 301 302 313 317 315 315
314 317 322 324 327 328 328 328 330 330 330 330 329 328 325 322 320 319 317 315 313 312 309 306 303 299 298 298 295 293 291 290 291 294 297 297 296 297 297 298 299 302 315
309 312 316 320 324 326 326 327 327 327 328 329 330 329 328 326 323 320 319 316 314 312 310 308 302 295 294 292 292 292 290 290 289 289 291 293 295 295 295 295 294 296 299
300 308 312 317 321 324 327 327 327 328 329 329 329 329 329 327 326 323 320 317 314 313 310 306 301 295 294 294 294 291 291 292 288 290 288 292 294 294 293 294 294 295 296
292 296 306 311 316 320 325 321 313 315 317 324 327 328 329 329 328 326 323 321 316 314 311 307 304 303 297 292 293 296 287 290 286 288 289 289 291 293 291 293 293 293 294
295 293 296 304 310 314 319 319 321 323 322 325 327 328 327 328 329 327 325 324 319 316 314 309 307 305 304 295 295 294 293 292 289 290 284 287 288 289 292 292 292 291 292
295 295 296 299 305 311 315 320 320 320 321 318 315 319 325 325 327 327 326 325 322 318 316 312 308 306 306 302 297 292 295 291 288 287 292 286 283 288 289 291 291 291 289
295 296 297 300 303 308 312 314 315 318 316 310 309 312 314 320 323 324 322 324 323 319 317 314 310 307 306 306 301 303 298 292 293 290 287 291 285 285 287 288 289 290 291

GFSSE_sfc_thetae_081.txt.gz
Theta_e
333 341 346 345 344 344 344 345 346 348 349 348 347 344 343 342 340 341 343 343 343 340 340 341 342 340 340 341 342 342 341 342 342 341 342 341 342 340 341 341 341 338 341
337 341 343 345 343 343 344 345 346 346 348 349 347 344 343 341 340 339 341 341 341 339 338 338 339 338 339 339 339 338 338 341 341 341 342 344 343 341 340 340 341 338 339
338 341 343 344 346 345 345 345 346 346 347 348 347 345 343 340 338 339 339 341 340 339 340 337 336 336 336 336 337 339 340 339 338 337 339 339 338 339 339 338 337 338 338
339 342 343 344 346 345 344 344 344 345 346 348 347 344 343 338 338 338 339 341 340 340 340 337 337 335 337 337 340 339 338 336 335 335 334 335 335 338 338 336 337 337 335
339 342 343 344 346 342 342 342 342 344 345 347 345 343 341 337 336 337 339 339 339 340 339 339 336 336 335 338 338 337 336 335 333 331 331 332 333 334 334 332 332 333 332
339 342 343 344 345 342 343 340 340 340 343 345 343 341 337 336 336 336 339 338 338 337 340 338 337 337 337 336 335 335 335 332 330 329 330 331 331 333 332 330 329 329 329
338 340 344 343 343 343 342 340 340 340 341 343 342 339 336 336 335 335 337 337 334 336 338 339 337 338 336 335 334 334 331 328 327 328 328 329 330 332 331 329 328 327 327
337 339 343 337 339 341 341 341 341 342 341 342 341 336 335 335 334 334 335 334 332 338 339 338 336 335 335 334 333 331 328 326 325 327 327 327 329 330 329 326 326 325 325
338 339 342 342 338 335 338 338 339 340 340 340 340 338 336 336 335 334 335 334 332 334 337 335 335 334 333 333 332 329 326 325 325 325 324 326 328 328 327 326 324 324 323
336 338 340 340 340 340 339 332 333 336 337 337 336 333 331 332 332 331 330 334 332 334 336 335 333 333 332 332 330 328 326 324 324 323 325 325 326 326 326 323 323 322 322
333 336 338 339 338 338 338 332 330 331 332 331 330 326 325 330 329 328 327 331 333 334 334 333 331 329 329 328 327 325 324 324 323 323 324 326 323 324 324 323 323 320 321
329 332 335 337 337 337 336 334 335 332 334 332 330 328 326 326 326 326 325 327 329 327 331 330 328 324 321 325 325 322 324 323 322 322 323 327 323 322 320 322 321 319 320
330 331 333 334 337 336 336 334 334 332 331 330 328 326 324 322 325 326 328 328 328 322 326 326 324 321 320 321 322 322 322 322 321 321 323 325 323 321 320 319 319 319 317
329 331 332 333 334 336 336 334 333 331 329 327 326 325 322 321 322 324 325 326 325 325 324 322 319 318 318 318 320 321 320 319 320 320 322 322 323 322 320 319 317 317 317
329 331 332 333 333 335 335 335 333 331 329 327 325 324 322 320 321 322 323 324 323 321 320 317 317 316 316 315 316 318 319 320 321 320 321 318 322 322 320 319 318 317 316
330 331 332 332 333 333 334 334 333 333 331 327 325 324 322 321 320 321 321 321 321 320 316 316 315 315 315 313 313 313 315 316 316 318 321 321 321 323 321 321 320 320 317
328 331 332 332 332 332 333 333 333 333 331 328 326 324 322 321 319 319 320 319 320 318 315 314 312 311 310 310 310 308 307 310 310 313 317 318 321 320 322 321 320 319 319
325 326 330 331 331 331 331 332 332 332 332 330 327 325 323 321 320 319 318 318 317 316 314 310 309 309 308 307 307 307 305 305 308 307 308 313 315 318 320 322 321 319 319
323 325 326 330 330 330 331 331 331 331 331 331 330 326 323 322 320 319 318 317 316 315 313 310 307 307 305 304 304 303 303 302 303 302 305 307 310 313 316 318 319 319 319
319 322 325 327 329 330 331 330 330 330 330 330 330 328 325 322 321 320 320 318 316 314 312 310 308 305 305 304 301 298 298 300 301 302 303 302 303 307 307 309 315 316 316
312 317 321 323 327 329 328 327 327 326 328 329 329 329 327 325 322 320 320 317 315 314 312 311 307 302 300 300 298 300 296 299 295 296 297 299 303 303 305 306 308 309 313
301 310 315 320 324 327 329 329 329 329 329 329 329 329 329 326 324 322 321 319 316 315 313 310 307 300 302 299 300 296 298 301 298 299 297 296 298 303 301 299 299 301 305
296 296 305 313 319 324 328 325 320 323 322 327 327 328 328 328 327 324 323 321 317 317 314 312 308 305 302 297 299 301 291 295 297 297 297 298 299 300 302 301 298 300 299
298 299 298 302 311 317 323 324 324 324 323 326 327 328 328 329 328 326 325 323 320 317 316 313 311 309 309 299 297 298 298 297 296 296 291 292 297 297 297 301 297 298 298
298 299 301 304 307 311 317 322 322 323 325 324 323 326 327 327 328 328 326 324 322 319 318 315 311 309 309 307 300 298 298 297 291 291 299 301 289 290 294 298 298 298 296
297 298 300 301 301 309 314 316 318 319 319 317 316 317 322 325 326 326 325 325 324 322 319 318 315 311 310 309 306 305 300 296 296 293 293 299 299 297 289 291 295 295 299

GFSSE_sfc_thetae_084.txt.gz
Theta_e
338 341 344 347 345 345 347 347 347 351 349 347 345 344 341 341 341 342 343 341 340 341 343 343 342 342 342 343 342 342 342 341 343 343 343 341 340 342 342 342 341 337 340
341 339 344 347 345 344 345 346 346 349 349 346 345 343 341 340 340 341 341 342 338 339 340 340 339 339 339 339 340 341 342 342 342 343 342 342 341 340 340 339 340 337 338
338 340 342 344 345 344 345 346 347 348 349 347 345 343 340 340 340 339 339 340 341 338 337 337 337 336 337 338 341 341 340 339 340 341 340 337 336 339 340 338 337 338 338
338 338 339 344 346 345 345 345 347 348 349 346 344 342 339 339 340 339 341 341 342 339 338 337 338 338 340 339 339 339 338 336 336 337 334 333 332 336 337 337 336 335 335
338 343 343 344 346 343 343 343 345 347 349 345 343 340 338 338 339 338 340 340 342 339 337 336 334 338 339 338 338 337 335 334 335 333 333 333 332 332 333 333 333 333 332
340 343 343 345 344 341 342 341 343 346 345 344 341 338 337 337 338 338 339 337 339 341 337 337 338 338 337 336 336 335 333 333 333 331 331 331 331 333 331 330 328 329 329
340 344 343 343 343 343 342 341 342 345 345 343 340 338 336 336 336 337 338 335 335 338 337 338 338 337 336 335 335 333 330 331 328 328 330 330 330 331 331 329 329 327 327
340 343 343 337 339 341 341 342 342 343 344 341 338 337 336 335 335 336 335 332 338 340 339 337 336 335 335 334 333 330 327 328 326 327 327 327 329 329 328 327 326 325 325
341 342 342 340 337 336 337 338 340 341 342 341 339 338 337 337 337 336 336 333 336 338 337 336 335 334 334 333 331 328 327 327 326 326 325 325 328 328 327 325 324 324 323
340 341 342 340 339 339 339 332 334 337 337 338 336 333 332 332 332 332 331 334 334 336 336 334 333 333 333 331 328 326 325 326 325 326 324 324 327 327 324 323 322 322 322
337 339 341 340 339 339 339 333 330 332 332 331 330 327 327 332 331 330 329 332 334 336 335 332 331 330 331 329 327 325 324 326 325 325 323 325 324 325 323 322 319 320 320
334 337 338 339 339 338 337 338 337 336 336 336 335 332 331 331 330 328 327 327 329 329 331 330 328 325 325 329 327 324 327 326 324 324 323 326 323 321 322 320 318 319 318
333 335 335 336 338 339 338 338 338 336 336 336 335 332 330 329 329 329 331 329 329 324 327 327 327 327 327 328 328 328 324 325 323 324 323 325 323 321 320 321 319 318 317
332 334 336 336 337 337 338 338 338 337 335 334 334 332 329 327 328 328 329 330 330 328 328 328 327 327 327 327 328 327 326 325 324 324 323 322 324 322 321 319 319 318 317
331 334 335 336 335 336 336 337 336 337 336 334 333 332 330 327 327 328 328 328 328 328 327 326 325 325 325 325 326 326 325 325 324 324 324 317 323 323 323 322 320 320 318
334 335 336 335 335 335 336 337 336 335 335 335 333 331 330 328 326 327 327 327 327 327 325 324 324 324 323 323 323 324 324 324 324 323 323 322 321 324 323 323 322 321 320
335 336 335 335 335 334 335 336 336 336 335 334 334 332 330 328 326 325 326 326 326 326 323 321 322 322 321 321 320 321 321 321 322 322 322 323 322 320 323 323 323 322 322
334 335 336 334 334 334 334 335 335 335 335 334 333 333 331 328 327 325 325 324 323 322 321 320 319 315 316 315 315 315 313 315 316 317 318 320 321 320 320 323 323 322 322
332 334 335 335 332 333 334 334 334 334 335 335 333 330 329 329 328 326 325 322 321 320 317 316 313 314 314 312 310 310 310 310 312 312 315 314 317 318 320 319 321 321 322
330 332 333 335 335 332 333 333 332 333 334 334 333 331 329 327 326 326 326 323 320 319 317 315 313 311 311 314 309 308 311 312 312 310 312 312 312 314 312 317 319 320 318
318 327 330 332 334 333 329 329 329 328 330 331 332 332 331 328 326 324 324 326 321 318 317 316 314 310 307 309 309 311 311 311 309 309 312 311 312 310 311 310 314 318 318
306 314 323 327 330 333 331 330 331 329 330 330 332 331 331 328 326 324 323 322 321 320 320 319 314 312 312 311 308 309 304 310 312 309 311 310 311 311 309 310 312 313 315
304 303 310 318 324 329 332 330 328 327 327 328 329 329 330 330 328 325 324 323 321 319 317 316 314 312 309 308 306 306 298 297 311 313 309 309 309 310 310 311 308 309 309
308 309 304 307 315 322 328 328 326 324 323 326 328 330 330 330 329 327 326 324 323 321 318 318 316 314 311 306 299 303 307 302 302 299 299 299 303 306 308 306 307 308 304
307 309 313 314 314 316 322 325 325 325 326 328 329 328 330 331 330 329 327 325 323 322 321 320 318 313 313 310 306 303 300 303 298 296 300 304 301 302 304 302 303 305 302
306 307 308 308 309 317 320 321 323 323 323 322 324 325 326 328 329 329 328 326 325 323 321 320 319 316 313 312 312 307 303 299 299 295 295 299 303 307 298 297 298 299 304

GFSSE_sfc_thetae_090.txt.gz
Theta_e
336 342 348 347 348 349 349 348 348 348 346 343 343 343 342 341 341 343 345 345 343 343 345 344 344 343 344 344 344 344 343 344 344 343 343 342 342 342 341 341 340 337 342
337 342 346 347 347 348 347 348 348 348 346 342 342 341 341 341 341 340 342 343 342 339 340 339 341 343 343 344 343 343 342 342 342 341 341 340 341 340 341 339 339 335 338
334 342 343 346 346 346 347 348 347 348 345 342 341 341 340 339 340 341 340 341 341 338 340 341 342 342 342 342 341 341 341 341 340 338 338 333 335 339 339 337 336 337 336
337 339 340 344 346 346 348 348 346 348 345 342 340 341 340 342 341 342 340 342 339 340 341 342 341 341 341 340 339 338 339 340 337 336 329 328 331 337 337 337 337 336 335
335 337 342 344 346 345 347 346 346 348 345 341 340 340 339 339 341 342 341 341 338 338 341 341 340 339 338 337 336 335 336 337 335 330 327 327 329 332 333 332 332 333 332
337 338 342 344 344 344 346 347 346 346 343 340 339 340 339 338 338 339 343 341 341 339 340 339 338 338 337 336 334 333 333 336 331 327 327 330 327 331 330 330 331 329 329
337 338 340 342 343 343 344 345 346 346 342 339 338 339 339 338 337 337 339 340 339 340 339 337 336 336 335 334 332 331 332 332 324 324 326 326 328 332 331 328 328 326 328
337 337 338 336 339 341 342 344 345 344 342 340 338 337 338 338 336 335 338 339 339 339 338 336 335 335 334 332 330 330 329 328 324 322 324 323 330 328 327 325 326 325 325
336 335 336 336 335 336 337 339 341 341 341 340 339 339 338 338 338 335 337 340 338 338 337 335 334 334 333 331 329 328 326 326 320 320 323 323 330 327 324 323 324 323 323
335 333 332 333 334 334 334 333 335 337 337 337 335 333 331 332 331 330 330 336 339 336 336 334 334 333 331 329 327 327 324 325 319 319 320 322 327 325 323 323 322 321 321
334 336 333 331 333 333 334 330 330 332 332 330 329 327 326 326 327 327 327 332 335 335 333 331 330 331 329 327 326 324 324 321 321 319 318 326 325 323 322 320 320 320 319
331 333 335 332 332 332 334 331 332 332 330 330 328 326 327 325 324 326 323 326 329 330 332 330 328 327 326 321 319 322 320 319 318 317 318 326 325 324 322 321 318 319 318
330 332 335 334 333 332 331 331 331 331 330 330 327 326 325 325 323 324 323 321 321 321 321 323 321 321 322 323 322 321 320 319 316 317 319 325 324 322 323 322 320 320 319
329 331 333 336 334 332 332 331 331 330 330 329 329 327 324 323 321 322 323 323 322 321 321 321 321 321 321 322 321 321 320 319 317 318 317 321 326 324 324 324 323 322 321
327 330 333 333 334 333 332 333 332 331 330 329 329 328 325 323 322 322 322 323 323 321 321 320 319 320 320 321 321 321 320 319 319 318 317 317 323 325 325 326 325 325 324
328 328 332 333 333 334 332 332 332 332 332 331 329 328 327 324 323 323 322 322 322 322 321 320 319 318 318 319 319 320 319 319 319 319 318 316 321 325 325 325 326 326 325
327 329 330 331 332 332 332 333 333 333 332 332 330 331 327 326 323 321 322 321 321 322 320 318 318 318 317 318 317 318 318 318 318 318 318 317 317 320 324 325 325 327 327
326 327 330 331 331 331 332 333 333 333 332 332 332 331 330 328 326 322 321 321 322 321 319 317 317 317 315 314 313 314 314 315 315 315 316 316 316 317 318 324 326 325 327
325 327 329 331 329 330 332 333 334 333 333 333 332 331 331 329 328 324 322 321 321 319 316 316 316 316 314 314 312 311 313 311 312 313 312 314 314 315 315 318 320 321 325
324 326 328 331 330 329 332 332 333 332 332 332 331 331 331 330 329 327 326 325 323 317 316 317 314 314 312 311 311 309 311 310 310 310 312 313 312 314 313 314 313 315 318
308 323 326 328 330 329 330 329 329 329 330 330 331 331 331 329 328 326 325 324 324 319 318 318 315 313 313 311 309 309 311 312 311 312 313 313 313 313 312 313 314 314 315
301 306 320 325 329 329 330 330 329 329 329 330 330 330 331 329 327 325 324 323 323 321 320 318 316 313 313 312 308 307 303 306 311 313 312 312 311 310 312 311 312 312 313
300 301 308 316 324 330 328 330 328 327 326 327 327 328 329 330 328 325 324 323 322 322 320 319 318 315 313 311 311 308 301 300 304 308 312 311 309 309 311 311 311 310 311
305 301 302 309 317 323 329 326 325 323 322 324 325 328 328 329 328 326 325 323 323 322 321 320 319 318 315 312 306 308 311 307 305 305 306 306 308 308 310 309 309 309 308
307 308 303 308 311 315 318 323 323 321 322 322 322 321 324 325 327 327 325 324 323 322 322 321 319 318 317 315 311 306 303 305 305 302 302 306 306 306 306 307 307 306 307
303 304 307 311 312 314 316 317 316 315 316 316 316 316 317 319 320 319 320 320 321 321 321 320 320 319 318 316 315 313 307 305 301 300 300 304 305 308 308 306 305 305 306

GFSSE_sfc_thetae_093.txt.gz
Theta_e
335 343 347 351 349 349 350 348 347 347 345 344 343 341 341 341 342 346 345 344 345 345 345 343 344 344 345 344 343 342 342 341 341 343 343 342 341 340 339 339 340 335 341
340 343 345 349 349 349 349 348 348 346 345 342 342 341 340 340 340 340 341 342 342 340 342 343 343 344 344 343 343 343 339 340 341 341 339 341 340 340 338 338 337 335 337
339 342 344 347 348 348 349 348 348 346 343 342 342 340 341 342 340 339 339 342 341 341 342 342 342 342 342 341 342 341 339 339 339 337 336 331 332 338 338 338 337 337 338
339 341 342 344 347 348 349 347 348 346 343 342 340 342 342 343 341 339 339 341 341 342 341 341 340 340 339 340 340 339 338 337 335 332 324 328 330 335 336 335 334 334 332
337 340 341 344 347 347 347 346 347 345 343 341 341 340 342 343 341 340 338 340 341 341 340 340 339 338 337 336 336 335 335 335 333 328 324 326 326 329 330 332 332 332 331
337 340 341 344 346 346 346 346 346 345 341 340 340 338 339 340 343 341 340 340 340 340 338 338 338 337 336 334 334 333 334 333 329 325 324 327 326 332 331 329 327 326 329
336 338 340 342 344 346 346 346 346 344 341 339 340 339 338 337 339 340 340 340 340 339 337 336 336 335 334 332 331 331 331 329 322 322 322 327 326 331 329 329 327 329 328
336 337 338 335 338 342 344 345 344 343 342 341 340 339 337 336 337 340 339 340 340 338 336 335 335 334 332 331 330 330 330 327 322 321 321 322 330 326 325 326 325 324 324
335 334 334 335 334 334 337 339 340 340 340 340 340 339 338 337 336 336 340 340 338 337 336 335 334 333 331 329 328 329 327 325 319 320 322 321 329 325 324 324 323 322 324
332 332 331 332 333 332 333 332 334 336 337 336 335 332 331 330 330 331 330 337 338 335 335 335 334 332 330 328 327 326 325 324 317 319 320 321 327 324 323 322 321 320 321
329 330 329 330 331 331 331 329 330 331 331 330 329 326 325 325 324 325 327 332 336 334 332 330 330 330 328 326 325 324 323 318 316 317 317 326 325 323 321 320 320 320 319
328 328 328 328 330 331 333 330 329 329 327 327 326 324 325 323 324 324 322 326 329 330 332 329 328 327 325 319 317 321 318 317 316 315 316 326 324 323 322 321 319 319 319
328 331 331 328 330 328 329 329 328 327 326 326 323 323 323 322 322 321 319 320 319 320 320 321 320 319 320 321 319 317 318 317 315 315 317 325 324 324 323 323 322 320 321
328 328 333 333 331 330 328 329 328 327 327 326 324 324 321 319 318 321 320 319 319 319 318 318 318 319 319 320 319 319 319 317 316 316 315 321 326 325 325 325 325 324 323
328 329 331 333 331 332 331 331 330 330 328 327 326 325 322 320 319 320 320 320 320 318 319 318 318 318 318 319 319 319 318 318 317 317 315 316 322 326 326 327 327 327 325
328 330 331 331 331 331 330 331 330 330 331 330 327 325 324 321 320 320 320 320 320 320 319 318 317 317 317 317 317 318 318 318 318 317 317 315 320 325 326 327 328 329 328
327 330 331 331 331 330 329 331 331 331 332 330 330 329 325 324 321 320 319 319 319 320 319 317 316 316 315 316 315 316 316 317 316 317 316 316 316 319 323 326 328 328 329
324 327 331 332 331 329 329 331 332 332 331 331 331 331 329 327 324 320 319 319 319 319 317 315 314 314 313 314 313 314 312 313 314 314 314 315 315 315 318 323 326 327 328
324 324 327 329 329 327 329 333 333 332 331 331 331 330 330 329 327 323 320 319 319 317 315 315 314 314 313 314 313 313 313 312 312 314 314 314 315 316 317 318 320 321 325
322 324 326 329 328 327 328 332 332 332 332 332 331 330 330 329 328 327 326 324 322 319 316 317 316 315 313 312 312 310 312 310 311 312 313 313 313 313 314 315 316 315 318
310 321 326 328 327 327 325 328 328 328 329 330 330 330 330 329 328 327 325 325 324 320 318 317 316 313 313 312 310 310 309 310 310 310 312 310 311 312 311 312 313 315 315
299 302 316 327 327 327 327 327 330 329 329 330 330 330 330 329 328 326 325 324 323 322 321 318 316 313 313 313 310 307 304 305 307 311 310 310 310 310 310 310 311 311 312
298 299 303 316 327 327 327 329 327 326 326 326 327 328 329 330 328 325 325 323 322 321 320 319 317 315 314 312 312 310 304 302 305 311 310 310 308 307 307 308 309 309 310
304 299 300 309 322 328 330 328 326 324 322 325 325 327 327 328 327 326 324 323 322 321 320 319 318 318 315 313 309 309 311 309 306 305 307 309 308 308 307 307 306 307 309
305 299 303 309 313 319 327 327 324 322 322 321 319 319 319 320 317 317 320 322 322 321 321 320 319 317 317 315 311 309 305 305 305 302 303 306 307 307 307 306 309 310 308
301 302 304 306 307 313 315 318 318 316 315 313 311 310 307 309 306 305 306 307 308 310 312 315 315 313 314 314 315 314 308 307 307 302 303 305 306 308 309 309 307 307 308

GFSSE_sfc_thetae_096.txt.gz
Theta_e
334 341 349 349 349 350 348 346 345 346 344 342 342 342 343 343 342 342 344 346 346 344 343 342 344 345 344 343 342 341 341 341 342 342 341 341 340 339 338 338 338 333 339
338 342 347 348 349 349 347 346 346 345 345 342 341 341 341 341 340 339 340 344 344 343 342 344 344 343 342 341 340 338 338 338 338 339 338 338 337 337 337 337 335 331 337
338 342 345 348 350 348 348 347 346 344 344 341 341 342 340 340 340 340 340 339 342 342 341 342 342 341 339 340 340 337 336 334 334 334 334 328 331 337 338 337 336 336 334
339 341 342 345 348 347 347 347 345 344 343 341 341 343 341 340 339 341 341 344 342 340 340 340 340 338 338 337 336 336 334 333 333 331 324 327 328 335 335 334 332 332 332
338 340 342 345 348 347 346 346 345 343 343 341 342 344 343 340 338 339 340 343 341 340 339 338 338 337 336 335 336 335 334 333 331 325 321 322 323 328 331 329 329 330 333
336 338 342 345 347 346 346 346 344 342 342 341 341 341 343 341 338 339 340 340 339 338 338 337 336 335 334 334 333 333 333 332 327 321 322 328 327 331 329 328 327 328 329
335 336 340 344 346 346 346 346 344 342 341 341 340 339 339 341 340 339 341 340 338 337 336 336 335 333 332 331 330 331 331 328 321 320 321 324 325 328 328 326 327 328 328
335 336 337 335 340 343 344 344 343 342 341 341 339 337 337 339 339 339 341 339 337 336 335 334 333 332 331 330 330 330 329 326 321 319 319 320 327 327 327 325 324 324 325
334 333 332 334 335 336 338 339 340 340 340 341 340 338 337 337 339 340 339 338 336 336 335 334 333 331 330 329 328 328 326 324 317 319 321 320 329 325 324 323 322 322 323
330 330 329 330 332 333 333 331 333 336 337 337 335 332 330 330 331 332 332 337 336 335 335 334 332 330 328 327 327 326 324 323 317 318 319 320 326 323 323 322 320 320 321
327 327 328 328 329 331 331 327 329 330 331 330 328 326 324 322 323 325 328 334 334 333 331 330 331 328 326 324 324 324 321 315 316 316 316 326 324 323 322 320 320 320 319
323 325 326 326 327 329 333 329 328 327 326 325 324 323 323 322 322 323 322 327 330 330 331 329 327 327 324 319 316 319 317 315 314 314 315 325 324 324 323 322 321 320 321
325 326 326 327 327 328 328 327 326 324 324 323 322 322 321 321 320 319 318 318 319 319 319 320 319 318 318 318 319 316 316 316 314 314 316 324 325 325 325 325 324 322 322
326 327 327 327 327 327 327 326 326 325 324 323 321 322 319 318 318 318 318 318 317 317 316 316 316 317 317 319 318 317 317 316 315 315 314 319 325 326 327 327 327 326 325
326 327 328 330 329 327 327 327 326 325 325 325 323 322 320 317 316 319 318 318 318 317 317 316 316 316 316 317 318 317 317 317 317 316 314 315 320 325 327 329 329 329 328
327 327 329 329 330 330 329 329 329 330 329 328 325 323 321 320 318 318 318 319 318 318 318 317 316 315 315 315 316 316 316 317 316 317 316 315 319 323 326 328 330 330 331
328 329 329 329 329 329 327 330 330 329 330 329 329 327 323 321 319 319 318 318 318 318 317 316 315 314 313 314 313 315 315 315 315 315 316 316 316 318 322 326 328 330 331
327 328 330 331 329 328 327 327 330 330 330 330 329 329 327 326 322 318 318 318 318 317 316 314 313 313 314 314 313 314 314 312 312 314 314 315 315 316 319 322 325 327 329
326 329 329 329 328 327 327 328 331 331 330 330 330 330 329 328 326 323 320 318 317 316 315 315 315 315 314 314 313 311 311 313 311 312 312 313 313 314 314 317 319 320 324
324 328 329 329 329 326 326 327 331 331 331 331 330 330 330 329 327 326 325 323 321 319 317 317 316 313 314 311 312 313 313 311 311 309 311 312 311 310 311 312 313 313 317
319 321 326 327 327 326 325 324 327 328 329 330 330 330 330 329 328 327 326 325 324 320 319 318 317 315 314 314 311 311 309 311 309 310 308 309 308 310 309 309 310 311 313
304 316 323 326 326 326 327 324 325 329 329 330 330 330 330 329 328 326 325 324 323 322 321 320 317 314 313 313 312 308 305 309 309 309 309 308 308 308 308 309 308 309 310
298 299 312 323 326 327 327 327 327 326 327 327 327 328 329 330 329 326 325 324 323 321 320 319 318 315 314 313 312 311 305 303 309 312 310 309 309 307 307 307 307 307 308
302 299 300 314 324 325 328 327 326 324 322 324 325 325 322 322 321 323 323 322 321 321 320 319 318 317 315 312 311 309 311 310 305 303 307 307 310 307 306 308 308 308 308
302 297 301 310 323 325 327 328 325 323 322 320 319 318 314 308 308 309 311 312 314 315 316 313 312 310 312 313 311 310 306 306 302 302 300 303 306 308 308 308 308 309 309
300 301 303 308 310 319 323 325 323 319 317 313 309 306 304 304 302 302 301 302 302 302 302 303 303 303 303 304 304 303 302 303 303 302 300 300 299 301 302 303 304 306 306

GFSSE_sfc_thetae_102.txt.gz
Theta_e
329 338 346 346 347 346 345 343 343 344 343 344 344 343 343 344 344 346 346 346 345 344 344 343 341 339 340 340 339 339 339 339 339 339 338 337 337 340 338 337 337 331 336
335 341 344 346 347 345 344 344 344 343 344 342 341 340 341 342 343 343 344 345 346 343 342 341 339 338 338 337 336 335 336 335 335 335 335 337 336 336 336 335 335 330 334
337 342 343 346 347 345 345 344 344 344 343 341 340 340 340 340 341 343 342 344 343 342 341 340 338 338 336 335 334 333 333 333 332 331 330 323 330 334 333 335 333 334 334
339 341 342 345 346 344 345 344 343 344 345 341 340 342 341 343 342 341 341 342 342 340 340 338 337 337 336 335 333 332 331 331 330 328 320 322 325 331 331 331 333 330 328
337 340 341 345 346 344 344 344 344 344 345 342 339 339 340 343 342 341 340 338 337 338 337 336 336 336 335 334 333 332 331 330 329 323 319 324 324 328 330 330 327 327 329
335 338 342 345 346 344 344 342 343 342 343 344 341 339 340 341 342 339 338 338 336 335 335 335 334 333 333 333 332 331 331 330 324 318 318 323 323 328 328 328 327 327 327
333 336 340 344 345 345 343 343 342 342 341 342 341 338 338 340 341 338 337 336 335 335 334 333 332 332 332 332 331 330 329 326 317 317 317 317 319 327 328 326 326 325 326
334 336 338 337 340 342 342 342 342 342 340 339 340 339 338 340 340 338 337 335 334 334 333 332 331 331 332 330 329 328 326 324 318 316 316 317 328 327 327 326 325 325 324
332 332 333 336 337 336 337 338 340 340 340 339 338 338 340 340 340 338 337 335 335 334 333 332 330 330 329 328 327 326 325 323 315 316 318 317 328 326 325 324 323 323 324
328 329 330 332 333 333 332 331 334 336 337 335 333 331 330 332 334 334 332 335 334 334 332 331 329 328 328 327 326 324 324 321 314 314 315 317 325 325 325 322 323 322 322
325 326 327 330 329 329 329 326 328 330 330 329 326 324 322 322 324 327 329 332 332 331 331 330 328 328 324 323 323 323 319 313 313 313 313 320 325 326 326 325 324 323 323
321 323 324 328 327 327 329 325 325 325 323 323 321 319 320 320 321 323 322 325 327 329 329 328 327 323 320 316 316 318 314 314 313 312 313 321 325 328 329 328 327 327 326
319 322 323 324 325 325 324 323 322 321 320 320 319 319 319 318 317 317 317 316 316 317 315 316 315 316 316 316 316 315 314 314 313 313 315 320 324 327 329 330 330 330 330
318 320 322 323 324 324 323 322 321 320 319 318 318 319 317 316 315 315 315 315 315 315 314 314 314 315 315 315 315 315 315 314 314 314 315 318 322 327 329 331 331 332 332
318 320 321 322 323 323 322 321 320 320 319 319 319 319 318 316 315 315 314 315 315 314 315 314 314 314 313 314 314 314 314 314 314 315 314 315 320 325 328 330 331 332 333
320 321 322 323 323 323 322 322 321 321 322 320 319 319 318 316 315 315 316 316 315 315 314 314 314 313 313 312 313 313 313 313 313 313 314 314 319 321 324 327 329 331 332
322 323 322 324 324 323 322 323 323 323 324 323 323 323 320 318 316 316 315 315 316 315 315 314 313 312 311 312 315 314 315 313 312 312 313 312 313 316 319 323 325 326 328
324 323 324 327 324 323 322 324 325 325 326 328 327 325 323 322 321 317 316 316 316 315 314 313 316 316 313 314 312 313 315 312 312 312 311 311 311 311 314 317 320 321 323
324 325 324 324 324 324 323 323 324 328 328 328 328 327 326 325 324 321 320 318 316 314 314 315 316 316 315 316 313 312 312 311 311 311 310 309 309 310 310 313 314 314 318
324 325 326 326 325 324 324 322 324 328 328 329 329 328 327 326 325 324 323 322 320 319 318 317 316 315 316 316 314 312 311 311 309 307 308 309 308 308 307 307 307 308 313
322 323 325 325 325 324 321 323 325 326 327 328 329 329 329 329 327 325 324 324 324 322 321 320 318 317 316 315 311 313 311 310 306 308 307 307 307 308 306 307 306 306 307
319 322 324 326 326 325 326 322 323 325 328 329 329 328 329 328 328 326 325 324 324 322 321 320 318 316 314 315 312 309 303 305 305 308 306 306 305 304 305 304 304 305 305
314 318 323 325 326 326 326 322 325 326 326 326 327 328 324 325 326 325 325 324 322 321 320 319 318 316 313 313 313 310 303 298 304 304 304 303 301 300 300 301 302 303 303
307 311 319 323 326 326 324 324 325 324 322 323 324 316 312 314 314 316 318 318 318 317 315 313 312 311 311 306 303 306 308 305 298 294 298 298 298 296 298 299 300 301 301
299 300 303 316 321 323 325 325 325 324 323 320 313 309 307 306 307 307 307 307 306 306 305 303 300 300 301 303 302 301 300 296 296 291 289 290 292 293 295 293 296 297 299
301 300 297 302 319 321 323 325 325 323 319 314 309 305 303 301 300 300 300 300 297 297 297 296 295 294 294 293 293 293 293 292 291 289 287 287 287 289 290 292 292 294 293

GFSSE_sfc_thetae_105.txt.gz
Theta_e
337 344 346 348 348 345 343 343 344 347 347 345 344 345 346 346 347 347 346 344 345 343 343 342 341 338 339 339 338 338 338 338 338 338 338 339 339 338 336 334 335 330 334
340 344 345 348 347 345 344 344 345 345 344 342 343 343 344 344 344 346 347 345 344 342 341 340 338 337 336 335 335 335 335 334 333 333 335 336 335 335 336 336 336 333 334
342 344 345 346 346 346 345 345 344 344 343 341 341 341 344 345 344 343 345 344 343 341 339 337 337 336 335 334 333 333 333 332 332 332 332 329 329 333 335 334 332 330 332
342 344 345 344 346 345 344 344 345 344 342 342 341 343 343 343 341 342 341 343 340 340 337 336 337 336 335 333 332 332 332 332 330 329 327 326 327 331 331 330 330 331 336
342 343 344 344 345 345 344 344 345 345 343 341 341 342 344 341 341 341 340 338 338 337 335 336 336 335 334 333 332 332 332 330 328 327 327 326 327 329 330 329 328 328 330
341 343 344 345 345 344 344 344 344 345 343 340 340 342 343 341 340 339 337 335 334 335 335 334 334 334 333 332 331 330 330 328 325 325 325 326 327 330 329 328 327 327 328
339 343 344 344 344 344 343 343 344 343 344 342 340 340 342 340 338 337 336 335 335 334 333 333 333 334 332 331 330 329 328 326 324 324 325 326 327 329 328 328 327 326 326
337 341 343 338 340 341 342 342 342 342 342 342 340 340 342 340 338 337 336 335 334 334 333 332 333 332 331 330 329 328 326 323 323 324 324 325 328 328 327 326 325 325 325
336 338 340 342 339 335 338 338 340 340 340 341 340 341 341 340 339 337 337 335 334 333 332 331 331 330 330 329 328 326 325 322 322 322 322 324 329 328 327 325 324 324 324
334 336 338 339 339 337 338 331 334 336 336 335 334 331 331 333 334 333 332 335 334 333 331 330 329 329 328 327 326 324 322 320 321 321 321 323 327 329 329 327 326 325 325
330 332 336 336 335 335 334 330 330 330 329 328 326 324 325 331 332 332 329 332 332 332 331 330 329 326 324 323 323 322 320 321 321 321 321 322 326 329 330 329 329 328 328
325 328 333 332 332 332 331 331 331 329 328 326 325 326 326 327 328 327 323 323 326 327 329 328 326 322 322 324 324 322 323 322 322 322 322 322 326 328 330 331 331 331 331
324 326 331 331 331 331 329 329 328 327 327 325 324 325 325 324 325 325 324 323 323 319 322 321 322 323 323 323 323 323 323 323 323 323 322 321 326 329 330 331 332 332 333
323 325 328 330 329 329 328 327 326 325 324 324 324 324 324 323 323 323 323 323 323 323 323 323 323 322 322 321 321 322 322 322 323 323 322 318 322 327 330 331 332 333 333
321 324 327 328 329 328 327 326 325 324 324 324 324 324 324 323 322 322 322 323 324 323 323 323 323 322 321 321 321 321 321 321 321 321 322 316 319 323 327 329 331 331 331
320 322 324 327 328 327 327 326 325 325 324 324 324 324 323 323 322 323 323 323 324 324 323 323 322 322 321 320 320 321 321 321 321 321 321 322 318 319 322 326 328 329 329
321 322 323 325 326 326 326 326 326 326 326 325 325 325 324 322 321 322 323 323 324 324 322 322 322 321 321 320 321 322 322 322 321 321 320 320 320 316 318 322 324 324 324
323 322 324 325 325 325 325 326 326 327 328 328 328 327 324 323 322 322 323 323 323 322 322 321 321 320 320 319 322 322 322 321 320 320 319 318 318 318 317 318 319 318 319
325 323 323 326 325 325 325 326 327 327 328 330 330 327 325 324 324 322 322 321 320 321 321 319 319 319 322 322 321 321 321 321 320 317 317 316 316 316 315 314 312 312 315
326 326 326 325 326 326 326 325 327 329 329 330 329 328 327 326 326 324 325 324 322 322 320 320 319 320 321 321 318 317 319 320 318 317 315 314 314 313 313 308 310 309 312
325 325 326 326 326 325 325 324 325 325 327 328 329 329 328 328 327 326 325 325 324 323 324 322 321 320 319 320 318 316 316 315 315 314 314 314 310 309 306 306 308 308 309
323 325 325 326 326 326 327 326 329 328 328 329 329 330 330 329 328 328 328 326 325 324 323 322 321 318 317 317 314 313 309 310 312 311 311 310 306 303 300 304 304 304 306
318 322 325 326 327 327 328 326 326 327 327 327 327 328 325 328 328 326 326 326 324 323 321 320 320 318 314 314 314 312 306 302 304 308 307 304 300 298 300 302 300 302 301
316 319 323 326 327 327 328 327 327 326 324 325 325 319 316 318 319 321 322 321 320 318 316 313 313 313 313 308 308 307 308 307 299 297 303 302 296 296 298 297 300 298 295
306 313 318 322 326 327 327 328 327 326 327 321 316 312 309 309 310 310 311 311 309 308 307 306 305 305 307 304 303 301 302 301 300 294 292 293 293 295 295 297 296 295 293
302 303 306 316 322 325 326 327 326 325 320 315 312 309 306 304 303 303 302 302 302 302 301 300 300 299 298 297 296 295 296 295 294 292 290 289 288 292 294 297 293 292 292

GFSSE_sfc_thetae_111.txt.gz
Theta_e
340 344 347 347 344 344 347 348 347 347 346 347 345 345 347 346 346 346 344 343 342 340 339 338 338 337 338 337 336 337 337 337 336 336 338 338 335 335 335 337 335 329 334
342 343 346 347 344 343 344 344 345 345 346 346 345 344 345 344 343 343 341 341 338 338 338 337 336 336 335 335 335 335 334 333 335 336 337 336 334 334 336 337 336 331 333
340 343 345 345 344 343 344 345 344 344 345 346 344 344 345 343 342 342 340 341 339 338 337 336 336 335 334 333 333 333 332 332 333 333 336 329 329 332 333 333 333 333 333
341 343 343 344 344 344 345 344 343 344 345 344 342 343 344 342 342 341 338 339 338 338 336 335 335 334 333 333 333 332 330 330 333 334 329 327 327 332 332 331 331 331 330
341 342 342 344 344 343 344 344 344 344 344 344 343 342 341 340 338 339 338 336 336 336 336 335 334 332 332 332 331 330 329 328 332 329 327 327 327 329 331 330 329 329 329
341 341 342 344 343 343 344 343 343 343 344 344 343 342 340 338 337 336 335 334 334 334 335 335 333 332 331 330 329 328 328 328 331 326 326 328 327 330 330 330 329 328 327
338 340 340 343 344 345 345 344 344 343 343 345 342 340 339 338 336 335 334 333 334 334 334 333 332 331 330 329 328 327 326 328 325 325 327 327 328 330 330 329 329 328 327
339 339 338 337 340 342 343 343 343 342 342 343 341 339 337 336 336 335 334 333 333 334 333 332 331 331 330 328 327 326 325 327 324 325 327 328 332 332 332 331 330 329 328
339 339 339 337 337 336 338 339 341 342 342 342 342 340 338 338 337 336 335 333 333 332 332 331 331 330 329 327 326 324 324 325 325 325 324 325 330 333 333 332 331 331 331
338 338 339 337 336 336 338 332 334 335 337 337 336 334 332 333 333 333 332 334 332 330 330 330 328 328 327 326 325 324 323 325 325 326 325 325 329 332 332 333 334 334 334
334 336 339 338 335 334 335 332 330 329 331 330 330 328 328 332 331 330 329 332 331 330 330 328 327 325 325 326 324 324 325 327 326 326 326 326 329 332 333 334 334 335 335
329 333 337 338 334 333 333 334 332 332 334 335 334 334 333 332 330 327 324 326 328 330 328 326 325 325 325 328 327 326 327 327 327 327 325 326 328 331 332 333 333 334 334
330 331 335 339 335 332 331 332 331 329 331 333 334 333 332 330 329 329 328 327 326 322 326 327 328 328 328 328 328 327 327 327 327 327 323 324 327 330 331 332 332 332 331
328 329 333 336 335 332 332 331 331 329 328 330 332 332 331 329 329 329 328 330 331 330 330 330 329 329 328 328 328 328 328 328 328 328 323 320 324 328 330 331 330 328 326
328 329 331 333 334 333 330 329 329 328 328 327 329 330 330 329 328 329 329 330 331 330 330 330 329 329 329 328 328 328 328 328 328 328 327 318 322 326 327 324 322 322 323
329 329 330 331 333 334 329 329 328 328 328 328 329 330 330 330 330 329 329 330 330 331 331 330 329 328 327 328 327 328 328 328 327 326 326 321 320 320 316 317 318 320 321
329 329 329 330 331 334 330 329 328 328 328 329 331 331 330 330 329 329 329 329 330 331 330 330 329 328 326 326 327 327 327 326 325 324 323 323 320 315 313 314 316 316 318
329 326 329 331 331 333 331 330 329 329 328 330 330 331 331 331 330 330 329 329 331 330 330 328 327 326 326 325 323 325 325 325 324 321 321 318 318 315 311 311 312 314 315
325 324 325 329 331 332 331 331 330 330 329 329 331 332 331 330 329 329 328 330 329 328 328 327 325 325 325 323 323 322 323 323 322 319 317 316 313 306 306 310 310 309 309
330 326 324 326 327 330 331 331 330 330 330 331 332 332 331 330 329 328 328 328 327 326 325 325 324 326 325 322 320 320 321 322 320 319 315 310 305 305 305 306 307 306 304
332 330 324 323 325 327 328 327 327 327 329 332 334 333 331 330 329 329 328 328 327 326 327 327 327 324 322 323 319 319 318 320 316 312 309 304 302 303 303 304 302 301 299
331 331 328 324 325 326 328 329 330 331 332 332 335 334 332 331 330 330 329 329 329 328 328 326 324 323 322 321 317 316 310 313 311 311 308 301 300 302 301 302 299 297 297
331 332 331 329 326 326 328 330 332 332 332 332 332 332 331 331 332 332 330 330 329 329 328 327 324 322 320 319 317 313 308 304 303 309 307 300 299 300 301 301 297 296 296
330 333 333 333 331 329 329 330 330 329 327 330 331 332 332 333 332 332 331 330 330 329 325 322 322 323 322 318 314 312 312 308 300 298 303 299 297 298 299 298 296 295 295
329 331 333 333 333 332 332 332 331 329 331 332 331 330 331 331 331 328 327 327 324 322 319 315 316 319 319 316 313 308 306 304 304 299 293 295 296 297 298 296 295 294 294
327 329 331 331 331 333 333 333 331 330 330 330 330 328 326 324 321 320 319 320 318 316 313 314 315 313 310 308 304 303 302 299 299 295 294 294 292 295 297 296 294 293 293

GFSSE_sfc_thetae_114.txt.gz
Theta_e
338 342 347 347 345 348 349 349 348 348 348 348 347 347 345 343 344 345 343 340 339 338 338 338 338 338 336 337 337 337 336 336 338 337 336 335 337 340 337 337 335 331 339
339 343 346 346 344 346 346 346 348 347 347 348 345 345 344 343 341 340 340 338 339 338 337 337 336 336 336 336 335 334 333 334 336 337 336 333 334 334 334 335 336 330 335
341 343 342 345 345 344 346 346 346 348 347 346 346 345 343 343 341 339 340 337 339 337 337 336 335 335 334 334 333 333 333 333 336 335 335 325 326 333 333 332 331 332 332
340 342 341 343 345 345 344 344 346 347 346 346 344 344 344 343 340 338 338 338 336 336 336 335 334 334 334 333 332 331 331 332 336 331 324 324 326 332 332 331 331 331 330
339 341 341 343 345 345 344 344 344 345 345 345 344 342 341 340 339 337 337 336 336 336 335 335 333 333 332 331 330 330 331 332 334 326 322 323 322 330 332 331 329 329 329
338 339 341 343 345 345 344 345 344 345 345 344 342 340 339 338 337 336 335 334 335 334 334 334 333 331 330 329 329 329 330 333 329 321 322 327 324 332 333 331 330 329 329
336 337 339 343 344 345 345 345 344 344 345 343 341 340 338 337 335 334 334 334 334 334 333 333 332 331 330 328 328 328 328 330 321 321 323 324 326 332 334 333 332 331 331
336 335 338 336 340 342 343 344 343 343 343 342 339 337 336 336 334 334 333 334 334 333 333 332 331 330 329 328 327 327 328 328 321 321 322 324 333 335 334 333 333 333 333
337 334 334 336 335 335 338 339 340 342 342 341 341 339 338 337 337 335 335 333 333 332 332 331 330 329 329 327 326 326 326 326 319 320 322 322 332 335 336 335 335 336 336
337 335 333 333 334 336 335 332 333 335 337 337 335 333 332 332 333 332 331 333 331 331 330 329 328 328 328 327 325 326 325 325 320 321 321 325 332 334 335 334 335 335 335
334 335 333 331 330 332 334 327 328 330 331 330 329 328 326 328 329 329 328 331 331 330 329 328 326 325 327 327 326 325 325 321 321 321 321 328 331 333 334 333 334 333 333
328 333 335 333 330 330 332 331 329 330 330 330 329 327 328 324 324 325 323 327 329 329 329 326 326 327 324 322 321 323 322 322 321 321 321 328 331 332 332 333 332 330 329
326 330 335 334 330 327 328 327 326 327 328 329 329 327 326 323 320 320 318 318 318 320 321 323 323 323 323 322 322 322 322 322 321 321 322 327 330 332 332 329 326 326 326
325 327 331 335 331 326 327 326 324 323 325 326 327 327 325 324 323 322 323 324 323 323 323 323 322 323 323 323 323 323 323 323 322 321 319 322 328 327 324 322 323 324 323
323 326 329 331 333 327 326 325 324 323 323 324 326 325 325 323 322 322 323 323 323 323 323 323 323 323 323 323 323 322 323 322 321 321 317 319 319 319 320 321 321 321 322
325 326 328 329 332 329 324 323 322 323 323 322 323 325 326 324 323 323 323 324 324 324 324 323 323 321 321 322 321 324 322 321 320 320 318 316 316 316 316 317 319 321 320
326 326 327 328 330 330 324 324 322 323 323 322 325 326 325 325 323 323 323 323 326 325 324 324 323 321 320 321 321 322 321 321 319 316 318 313 309 313 313 315 317 315 315
326 326 327 329 328 330 325 323 323 323 323 324 325 325 326 326 324 323 324 325 325 324 323 322 321 319 321 318 319 317 319 320 316 314 312 308 301 305 310 312 310 310 310
327 325 326 327 326 327 326 325 323 323 322 324 326 326 326 326 325 323 322 325 326 322 321 321 318 322 319 317 315 315 316 316 313 313 309 302 301 301 303 308 305 305 306
325 323 324 326 327 328 326 325 324 323 323 324 325 327 327 325 325 323 322 322 321 320 320 319 321 322 320 316 317 316 314 314 311 307 299 299 299 299 300 299 298 297 302
322 319 319 322 325 328 325 322 321 321 322 323 326 327 327 325 324 323 322 322 322 320 320 321 323 320 318 315 313 312 311 309 306 300 296 295 297 299 298 296 295 293 294
325 325 319 319 322 324 325 325 322 322 322 324 327 327 327 325 325 324 323 322 323 321 322 322 322 318 318 314 310 309 304 305 304 302 296 295 295 297 296 294 292 293 292
325 326 325 320 321 322 324 324 323 324 325 325 325 326 327 326 325 324 324 324 325 323 322 321 322 319 316 311 311 308 301 299 299 303 294 293 294 294 295 293 292 292 292
325 327 328 325 321 322 323 323 323 323 323 325 326 327 327 327 326 326 325 324 324 325 324 323 322 320 318 311 308 308 303 301 294 293 295 291 293 294 293 292 290 291 291
325 327 328 328 324 322 323 323 324 325 326 326 326 326 326 326 326 325 326 325 323 323 321 319 317 318 317 311 307 302 299 297 297 292 288 289 291 293 292 291 290 289 290
323 326 327 327 328 326 323 323 325 325 325 325 325 325 325 323 322 321 320 323 322 319 317 315 314 314 308 305 301 299 297 295 294 290 288 288 287 290 291 291 289 289 289

GFSSE_sfc_thetae_117.txt.gz
Theta_e
335 340 348 347 349 349 349 348 348 348 349 348 347 344 343 344 342 342 338 338 338 338 338 338 338 336 336 337 336 336 336 336 336 334 335 335 336 337 335 334 334 330 335
340 343 345 347 348 347 348 347 347 347 348 348 345 344 342 341 340 338 337 341 338 338 337 337 336 335 335 334 334 335 335 335 336 336 333 333 334 334 333 333 332 329 333
341 342 342 345 346 345 347 348 347 347 347 346 344 344 342 340 340 338 339 339 337 337 336 336 336 335 333 334 333 334 335 337 336 334 331 323 326 333 333 331 331 332 332
340 340 340 343 345 345 346 347 347 346 347 345 345 344 341 339 338 337 336 336 336 336 335 336 335 334 333 332 333 333 334 333 333 330 323 323 326 333 333 332 332 332 331
338 338 340 343 345 345 345 346 346 346 346 345 343 341 341 339 338 337 337 335 336 335 334 334 333 331 331 332 332 333 335 332 330 326 323 323 323 331 334 333 331 331 331
337 338 340 344 345 345 344 345 345 345 345 344 341 340 339 337 336 335 336 335 335 334 334 333 332 330 330 331 331 331 333 332 328 322 322 327 327 334 334 333 333 332 332
335 337 340 343 344 345 345 345 345 346 345 343 339 338 337 335 335 335 335 334 334 334 333 333 331 330 329 329 330 330 331 330 321 321 322 325 330 334 334 334 334 334 333
333 337 339 336 339 342 343 344 343 344 343 341 338 337 336 334 334 334 334 334 334 333 332 332 331 330 328 328 328 329 329 327 321 319 320 323 333 335 336 336 336 336 336
333 334 335 336 335 335 337 338 341 342 341 340 339 338 337 336 335 334 335 334 333 332 331 331 330 329 328 328 328 328 327 326 317 319 324 324 334 334 335 335 336 335 334
332 332 332 333 335 334 333 331 334 337 337 337 335 333 331 332 332 332 330 333 332 331 329 329 328 328 327 327 327 326 325 324 318 319 322 325 333 334 334 334 333 332 331
332 329 330 330 332 332 330 327 329 331 331 330 329 327 325 326 327 328 327 330 331 330 329 328 326 326 326 325 326 325 324 320 319 319 322 330 332 333 334 331 329 328 326
330 328 329 327 329 331 332 327 327 328 327 326 325 325 326 324 324 326 324 327 329 328 329 327 327 327 323 320 320 322 320 320 321 321 322 330 332 333 330 327 326 325 324
326 331 330 329 328 327 328 326 326 326 326 325 325 325 321 320 319 320 319 320 319 320 319 322 321 321 320 320 321 320 321 320 318 321 325 328 328 327 325 325 324 323 324
325 328 330 330 327 326 327 323 323 324 325 324 325 324 320 318 317 317 316 316 317 318 319 320 320 321 321 321 321 321 321 322 318 317 319 319 323 323 323 322 322 323 320
322 326 328 330 326 325 324 323 321 320 323 324 325 324 323 321 320 320 320 321 321 321 321 320 320 321 321 321 321 321 321 320 317 317 314 315 319 318 320 321 323 320 318
324 325 327 329 331 324 323 322 321 320 321 322 322 322 323 321 320 321 321 321 321 321 321 322 321 319 319 322 321 324 321 318 317 315 312 312 316 316 319 319 318 317 317
324 326 326 327 329 325 322 322 321 321 321 320 321 323 323 323 320 321 321 321 323 322 322 322 321 319 317 319 320 320 321 318 315 314 309 306 309 314 314 314 313 314 314
324 325 326 329 327 328 323 321 320 320 320 320 322 323 323 323 322 320 321 321 325 323 322 320 319 317 317 317 318 317 319 315 311 308 306 303 304 305 308 308 308 310 311
324 325 325 326 325 327 325 321 321 320 320 321 323 323 323 323 323 321 321 322 325 321 319 319 316 317 317 317 315 314 316 311 309 302 299 300 302 303 300 303 304 305 307
325 325 325 326 325 325 325 321 320 319 319 321 322 323 323 324 323 321 320 322 322 319 318 317 316 319 318 317 314 316 313 310 303 297 297 299 299 297 295 294 293 298 302
324 323 325 324 325 325 324 320 319 319 319 319 321 324 324 324 323 321 320 320 318 318 318 318 318 319 318 316 311 312 307 301 296 295 296 297 297 295 293 292 293 292 293
323 323 323 324 324 325 326 325 321 319 320 322 323 325 325 324 323 321 320 319 319 317 317 317 318 317 317 315 309 307 304 302 299 294 294 296 295 294 292 292 292 291 290
320 319 319 323 324 325 325 324 320 320 320 320 322 324 325 325 323 322 321 320 320 320 318 318 318 317 314 313 312 307 298 298 299 295 291 293 294 293 290 291 291 291 290
322 322 318 319 322 323 325 323 323 321 319 322 323 326 325 324 323 323 323 323 322 322 320 320 322 320 317 312 309 307 303 299 294 292 291 290 292 292 289 290 289 289 289
323 324 324 318 318 321 322 323 322 321 322 323 324 324 325 325 324 323 323 322 322 321 322 319 318 319 318 313 308 302 299 296 296 292 288 287 291 291 289 288 288 288 289
322 324 323 323 318 319 319 321 321 320 321 322 322 323 324 324 324 323 322 322 322 321 320 320 320 318 315 312 307 301 298 295 292 289 287 286 287 289 289 288 288 287 288

GFSSE_sfc_thetae_120.txt.gz
Theta_e
333 341 347 350 350 349 348 347 347 348 348 345 344 342 340 339 338 337 337 337 338 338 338 337 336 337 337 336 336 336 335 334 335 334 334 333 334 334 334 333 332 327 333
336 342 345 349 348 348 347 346 347 347 347 346 343 341 340 339 337 338 337 337 337 337 337 336 336 335 336 335 336 336 334 333 333 333 332 333 333 332 332 332 332 329 333
340 340 343 346 347 347 347 347 347 346 347 344 343 341 340 338 337 336 337 336 336 337 336 335 335 335 334 335 335 336 333 332 332 331 330 323 325 333 333 332 332 333 333
338 339 341 343 345 345 347 347 346 347 346 345 342 340 339 338 336 336 335 336 335 336 335 335 334 334 334 334 334 333 332 332 331 329 322 324 327 334 334 333 333 333 333
336 338 340 342 345 346 347 346 346 346 345 345 342 341 338 338 337 335 336 335 334 334 334 332 333 333 333 333 334 333 332 332 330 325 323 326 326 331 334 334 332 332 332
334 337 340 343 345 345 346 346 346 345 344 342 341 339 337 335 336 335 335 335 334 334 333 332 332 332 332 332 333 333 332 331 327 322 323 328 328 333 335 333 333 333 333
333 336 339 342 344 344 345 345 346 345 344 340 339 337 336 335 334 334 334 334 334 333 333 332 331 331 330 331 332 332 331 328 320 319 321 323 328 336 336 337 337 336 335
334 336 338 336 339 342 343 344 345 344 343 339 337 336 335 335 334 334 334 334 333 333 332 331 330 329 329 330 330 329 328 324 319 320 321 323 333 335 336 336 335 333 332
334 334 335 336 335 334 337 339 341 341 340 339 338 337 336 336 335 335 335 333 333 332 331 330 329 329 329 329 329 328 327 323 317 320 324 324 334 334 335 334 332 331 329
332 332 332 333 334 333 333 332 334 336 337 337 336 333 331 332 332 332 330 333 332 330 329 329 328 328 328 328 329 327 325 322 318 320 322 325 334 335 333 331 329 327 326
330 329 330 331 331 330 330 327 329 331 332 331 329 327 325 325 326 325 327 330 331 329 328 327 327 326 326 325 326 325 322 320 320 320 322 329 334 332 328 327 326 325 324
326 326 328 329 330 329 330 327 327 328 326 325 324 323 324 323 324 325 323 327 329 328 329 327 327 327 322 319 319 322 318 319 322 323 323 330 330 328 326 325 323 324 324
328 327 326 327 330 329 326 325 324 323 323 322 322 323 322 320 320 320 319 321 319 320 318 320 320 319 319 319 319 319 319 317 318 323 321 326 326 325 324 323 324 321 319
328 327 327 326 328 327 326 324 325 323 322 321 323 323 318 316 315 315 315 315 315 316 317 318 318 319 320 320 320 320 319 319 320 317 317 319 323 322 322 324 321 318 318
327 329 330 326 325 324 325 323 322 323 323 323 323 322 318 316 315 316 316 317 318 318 319 318 319 320 320 319 319 320 320 317 317 312 314 315 319 319 322 321 319 318 317
324 326 329 327 324 324 324 322 321 321 322 323 323 322 322 320 318 318 318 319 319 319 320 320 320 318 317 320 321 323 319 316 314 310 310 311 318 319 318 317 317 316 316
324 326 327 328 327 323 323 322 320 320 321 321 322 322 322 321 319 319 319 320 320 321 320 320 319 318 315 316 319 321 319 317 311 306 307 306 308 313 313 313 314 314 314
324 325 327 330 328 324 323 322 321 320 319 319 320 321 322 322 320 319 319 320 321 321 321 319 318 316 315 315 316 318 315 315 310 305 304 303 303 303 306 309 310 310 312
323 324 325 327 327 326 322 321 320 320 319 319 319 320 321 322 321 319 319 320 321 319 319 318 316 314 312 314 315 316 313 307 302 300 301 302 302 298 297 304 305 306 308
323 324 325 326 327 327 323 319 318 317 318 318 320 321 321 321 321 319 320 320 320 318 317 316 315 315 314 316 315 313 310 306 300 297 298 300 297 293 292 293 293 297 305
322 323 324 324 326 325 322 318 316 317 315 316 319 321 321 322 321 320 319 319 319 317 317 316 315 315 318 315 312 307 302 299 295 294 295 295 293 292 291 291 290 290 293
322 322 323 323 325 325 326 322 319 317 317 319 320 321 323 322 322 321 319 319 318 316 315 314 315 314 316 315 310 308 300 299 297 293 293 294 291 290 290 291 290 289 289
321 321 322 323 324 325 326 323 318 317 316 316 317 319 322 323 322 321 320 319 318 316 315 314 315 315 314 314 313 309 302 299 295 292 291 292 290 289 288 289 289 288 288
321 323 323 324 324 324 325 324 322 320 318 320 320 320 321 322 323 322 321 320 319 318 316 316 317 317 316 312 310 309 306 302 295 289 289 290 291 289 288 288 288 288 288
323 321 321 321 323 324 323 323 323 322 322 319 318 318 320 321 322 322 321 319 319 318 319 318 317 320 318 314 310 305 301 298 297 292 285 286 289 289 288 287 287 287 288
322 321 319 315 319 322 322 323 321 320 320 317 317 319 320 323 322 320 320 320 320 319 319 319 319 320 319 316 311 305 302 299 295 290 286 284 286 287 287 287 287 286 286

GFSSE_sfc_thetae_123.txt.gz
Theta_e
333 340 347 349 348 348 347 347 346 347 346 342 340 340 338 338 337 337 338 337 338 337 337 338 339 338 337 337 335 334 335 335 335 334 333 333 333 333 334 332 332 327 333
336 341 346 348 347 347 346 346 346 347 345 342 340 339 336 338 337 337 336 336 336 336 336 336 337 337 336 336 335 334 333 333 332 332 332 332 333 333 333 333 333 330 334
338 341 344 347 347 346 346 345 346 346 343 341 340 338 338 337 336 336 336 336 336 336 335 336 335 336 336 336 334 333 332 332 332 331 330 323 326 333 334 333 333 335 335
337 339 341 344 347 346 346 346 346 346 345 341 340 339 337 337 336 335 335 335 335 335 335 335 335 335 335 334 333 332 331 332 331 329 322 324 327 334 335 334 334 333 332
335 338 339 342 345 345 346 346 346 346 345 341 339 337 337 337 336 335 334 334 334 333 334 335 334 334 334 334 333 332 332 331 329 325 326 328 324 333 335 334 333 332 335
334 336 339 343 346 346 346 346 346 345 344 341 339 337 336 335 334 334 334 334 333 332 333 333 333 333 334 334 333 332 332 331 326 320 322 327 330 335 337 337 335 335 335
332 335 338 342 344 345 345 346 345 344 342 339 338 335 334 335 334 334 334 333 333 332 332 332 332 332 333 333 332 331 329 326 319 320 321 325 329 337 338 337 336 334 333
332 334 337 335 339 342 343 344 344 344 342 339 337 335 334 334 334 333 334 333 333 331 331 331 331 331 331 331 331 328 325 323 320 320 321 322 333 336 336 334 333 330 329
333 333 333 335 335 335 338 339 341 341 340 338 338 336 336 336 335 334 334 333 332 331 330 330 330 330 330 330 329 327 325 323 318 320 323 322 335 335 334 331 328 327 326
331 331 331 332 333 332 333 333 334 336 337 336 335 333 331 332 332 332 331 333 331 330 330 329 329 329 328 329 328 327 324 322 318 320 321 324 334 331 330 328 325 325 326
330 328 329 329 329 329 330 328 329 331 332 331 329 326 324 324 324 324 327 331 330 329 328 328 327 326 326 325 326 325 321 318 319 320 322 330 330 329 327 325 324 325 323
327 326 328 328 328 328 332 328 327 328 326 324 323 322 323 322 321 323 321 326 328 328 329 327 326 326 321 318 318 321 317 318 320 323 320 329 328 327 325 324 323 321 320
327 327 326 327 327 325 327 325 324 323 322 321 321 322 321 321 320 319 319 320 318 319 318 319 319 318 318 318 318 317 317 317 318 318 320 326 326 325 323 323 321 319 319
325 325 326 326 327 325 324 324 323 321 320 320 320 321 319 316 316 315 316 316 315 316 315 316 317 318 318 319 319 318 316 319 317 315 314 318 323 321 324 320 319 318 318
326 326 325 325 326 325 322 322 323 321 320 321 321 322 318 314 313 313 313 313 314 315 316 316 317 318 318 318 318 319 318 317 312 313 310 315 320 322 322 319 317 317 317
327 327 327 325 326 326 325 321 322 321 322 321 321 321 318 316 314 316 316 317 317 318 318 318 318 318 317 318 320 321 317 315 311 308 309 312 318 319 317 316 316 316 315
325 328 327 326 325 324 325 323 321 322 322 321 321 321 320 319 317 317 317 317 318 318 318 318 317 317 315 315 318 319 317 314 308 306 306 305 306 313 313 313 313 313 313
324 324 327 329 324 323 323 322 322 321 321 321 322 322 321 320 319 317 317 318 319 319 318 318 316 315 313 312 314 316 316 311 306 304 303 303 301 301 306 310 310 310 311
323 324 325 327 326 323 323 322 320 318 318 319 319 320 320 320 319 318 317 318 319 318 317 317 315 314 311 312 313 312 310 308 305 303 303 301 298 296 297 305 305 307 308
322 323 325 327 327 326 321 319 317 317 317 317 318 318 319 319 319 318 317 318 318 317 315 314 314 313 312 312 311 308 303 300 300 300 301 299 295 293 293 293 293 296 305
320 321 323 324 326 326 323 316 315 317 316 315 316 318 319 319 319 317 317 317 317 316 316 315 314 312 313 314 308 304 299 298 297 297 296 294 291 290 290 290 290 290 292
321 321 322 323 325 326 327 324 318 317 315 317 316 317 319 319 319 318 317 316 316 315 315 314 313 311 313 314 310 305 298 297 296 296 293 293 289 289 289 289 288 288 289
321 320 321 323 324 325 326 322 317 316 315 314 314 316 318 320 320 319 318 317 316 316 315 313 312 313 311 314 313 308 301 298 295 291 291 292 289 288 288 288 288 287 287
321 322 322 323 323 324 325 324 323 321 317 319 319 318 317 320 320 320 320 319 318 317 315 314 314 314 313 312 311 310 306 304 298 292 291 290 290 288 287 287 287 287 286
321 322 322 322 322 323 323 324 323 322 322 321 317 316 317 319 320 321 320 319 318 317 317 315 312 314 316 316 311 306 302 299 298 295 292 289 289 289 287 286 286 286 286
320 321 321 321 322 323 322 323 322 322 322 318 317 317 317 319 319 320 319 320 319 318 317 317 316 315 316 318 313 308 304 301 298 294 291 286 289 288 288 287 287 286 286

GFSSE_sfc_thetae_126.txt.gz
Theta_e
332 338 347 348 348 348 347 346 345 345 343 340 338 338 338 338 337 337 338 339 337 337 339 338 338 337 335 335 334 334 335 335 334 333 333 334 334 335 334 333 332 327 334
336 340 345 347 347 347 346 345 346 345 342 339 338 338 337 337 336 337 336 337 336 337 338 337 336 337 336 334 333 333 333 333 333 333 333 333 333 334 334 334 334 333 335
337 341 343 346 347 346 346 345 346 345 341 339 338 337 336 336 336 336 336 336 335 336 337 337 336 339 336 334 332 332 333 333 332 332 331 326 328 335 335 335 335 334 334
338 340 341 344 346 345 346 346 346 345 341 340 338 337 336 336 335 336 335 335 334 335 337 336 336 335 334 332 331 333 333 332 331 329 322 324 328 335 335 335 333 336 336
335 338 339 344 346 345 345 345 345 344 342 339 338 336 336 336 335 334 334 334 334 334 335 335 334 334 333 332 333 333 332 332 330 326 326 328 325 334 336 336 336 336 335
333 335 339 343 346 345 346 345 344 343 340 338 337 336 334 335 333 334 333 333 333 334 333 334 334 334 334 332 333 333 332 330 326 320 325 327 330 338 338 337 335 334 333
331 334 337 343 345 345 346 344 344 344 340 339 336 335 335 335 333 332 332 332 332 333 333 333 333 334 333 332 331 330 328 327 320 320 321 322 327 337 336 335 333 331 331
330 333 336 335 340 342 344 344 343 343 341 338 335 334 334 334 333 332 332 332 332 332 332 332 332 332 332 332 329 327 326 324 320 319 320 321 334 336 334 332 329 329 327
331 331 332 334 335 335 338 339 341 341 339 338 336 335 335 332 333 332 333 332 331 331 331 331 331 331 331 330 329 326 325 324 318 319 322 323 334 333 331 328 326 327 323
329 330 330 331 332 332 334 332 334 336 336 336 334 332 331 331 332 332 330 332 331 330 330 330 330 329 330 329 328 326 324 322 318 320 321 328 332 330 327 325 327 324 322
328 327 328 329 328 329 331 328 329 330 331 330 328 326 324 323 324 324 327 330 330 330 329 328 328 327 325 326 327 324 321 318 319 318 323 329 329 327 325 326 323 321 321
326 328 327 327 327 328 332 328 327 328 326 324 323 322 322 321 320 322 321 326 327 327 329 328 327 324 320 317 318 320 316 317 319 316 320 328 327 325 325 322 321 320 320
325 327 327 327 326 326 327 325 324 323 322 321 320 320 320 320 318 318 318 318 317 317 317 318 318 317 317 317 317 316 316 317 318 317 319 324 325 323 323 320 319 319 319
323 326 327 326 325 324 325 324 322 321 319 318 319 320 318 317 316 315 315 315 314 315 314 315 316 317 317 317 318 316 315 318 315 314 315 318 322 322 321 319 318 318 317
322 323 325 326 326 323 323 323 321 319 318 318 318 320 318 315 314 313 313 312 313 314 315 316 316 317 317 317 317 319 318 314 312 312 311 316 322 322 319 317 317 316 315
324 323 324 325 326 324 322 321 322 319 319 318 318 319 318 315 312 312 312 313 314 315 316 316 316 316 316 316 317 319 317 312 311 310 310 311 318 318 316 315 315 315 315
325 324 323 324 325 325 323 321 320 321 321 318 319 320 318 316 313 314 314 315 316 317 317 316 316 315 314 313 315 316 315 311 308 308 307 304 306 314 314 313 312 312 313
324 324 325 326 324 324 324 323 321 320 320 319 319 319 319 318 317 315 315 315 317 317 316 316 315 314 312 310 312 313 313 308 306 306 305 303 300 301 307 310 310 310 311
323 324 324 325 322 323 323 322 321 319 319 319 319 319 319 319 318 317 315 316 317 316 316 315 314 313 310 310 311 311 310 306 305 305 304 301 298 297 298 306 304 306 309
322 323 325 326 325 322 321 319 318 317 316 317 318 319 319 319 318 316 315 316 316 315 314 313 313 312 314 313 309 305 303 302 302 303 303 300 295 295 294 294 294 296 306
319 320 323 324 326 325 318 316 314 317 315 314 315 317 318 318 317 316 315 315 315 315 315 314 313 313 314 308 303 301 298 298 299 300 300 296 292 291 291 291 291 292 293
320 320 321 323 325 326 326 322 318 318 315 317 316 316 317 317 318 318 316 315 315 314 314 313 312 310 312 309 306 303 298 295 294 296 294 294 291 290 290 289 289 288 290
319 320 320 322 323 325 327 323 316 314 313 313 313 315 317 318 318 318 317 317 315 315 315 314 313 311 309 310 309 305 298 296 294 291 293 295 292 288 289 288 287 287 288
318 321 322 321 322 324 326 324 322 321 318 319 318 317 316 317 318 318 318 317 316 316 315 314 313 314 311 308 308 310 307 304 298 296 292 292 293 290 287 288 287 286 286
319 319 321 321 321 322 323 325 323 322 323 322 316 314 315 315 318 318 317 316 316 316 316 315 311 312 313 313 309 307 304 301 300 300 303 290 289 290 289 288 289 287 286
318 319 320 320 320 321 322 323 322 322 322 318 314 315 315 316 316 317 317 318 317 317 316 315 315 313 313 314 315 310 308 304 303 298 297 294 287 288 291 290 289 288 287

GFSSE_sfc_thetae_129.txt.gz
Theta_e
337 343 348 348 348 348 347 346 344 344 343 339 339 338 338 338 337 340 339 339 341 340 339 339 337 336 335 335 335 334 334 334 335 335 335 335 336 337 335 335 333 332 336
340 343 345 349 348 348 346 346 346 344 342 339 339 337 337 338 337 337 336 338 338 338 337 338 338 335 334 334 333 333 334 334 334 334 333 333 335 336 335 335 336 334 336
340 344 345 347 348 347 347 346 345 344 340 338 338 336 337 337 336 335 335 336 338 338 339 340 338 335 333 332 333 334 333 332 332 332 332 330 332 337 337 335 334 337 338
342 344 345 344 347 347 346 346 345 343 342 338 337 335 337 337 336 336 335 335 338 337 338 335 335 334 332 333 334 333 333 332 332 331 331 330 331 336 337 338 338 337 336
341 343 344 344 346 346 346 345 344 344 342 339 337 335 336 336 336 335 335 335 337 337 337 335 334 334 333 334 334 333 333 332 330 329 332 336 335 337 338 338 335 335 333
339 340 342 345 346 345 346 345 343 342 339 338 336 335 336 334 334 334 332 334 336 335 334 334 334 334 333 334 333 332 332 330 328 327 329 334 336 338 337 335 333 331 328
336 338 341 343 345 346 346 345 344 342 339 337 336 334 336 333 333 332 332 333 334 333 333 334 334 334 332 331 330 329 329 327 327 329 331 333 334 336 334 333 331 327 325
335 337 340 337 340 343 344 344 343 343 340 337 335 334 334 334 334 333 332 332 333 333 333 333 333 333 332 330 329 329 328 325 327 329 331 333 334 333 331 329 328 325 324
335 336 337 340 339 336 339 339 341 341 339 338 337 334 335 335 334 332 331 332 332 332 333 333 332 332 331 330 328 328 326 325 329 330 329 330 332 330 327 329 325 323 322
333 334 335 337 338 339 340 332 334 336 336 336 334 331 329 329 331 331 330 332 332 332 332 331 330 330 330 329 327 325 323 324 326 327 327 329 330 327 328 326 323 322 321
330 332 334 334 335 337 337 331 330 331 331 330 329 326 326 330 330 329 328 331 331 331 330 329 329 327 326 327 326 323 323 325 324 325 325 329 328 326 324 323 322 321 320
326 329 332 332 332 334 334 333 334 333 332 330 329 328 327 327 327 327 324 325 327 327 329 328 327 324 322 325 325 322 324 323 322 323 324 327 325 326 323 321 320 319 319
326 328 330 331 331 333 333 332 331 331 329 328 327 327 326 325 326 326 326 325 325 319 323 324 324 324 324 325 323 323 323 323 320 321 321 324 323 324 321 319 319 318 317
326 327 328 330 330 331 331 330 329 328 327 326 325 325 325 324 324 323 323 323 322 323 322 324 324 324 324 323 324 322 320 319 317 317 317 319 322 323 320 318 318 317 316
324 326 327 329 329 329 329 329 328 326 325 325 324 325 324 324 322 321 321 321 320 321 323 324 324 324 324 323 323 323 320 316 315 314 317 317 322 322 319 317 316 315 315
325 325 328 328 329 327 328 328 327 326 325 324 324 324 324 322 321 319 319 319 320 321 323 324 324 324 324 323 322 323 321 315 313 313 314 318 319 319 317 315 315 314 314
326 326 326 327 328 327 327 327 327 326 324 323 323 324 324 322 318 318 319 319 321 323 323 323 323 323 322 319 321 322 319 314 310 311 310 311 313 314 315 313 312 312 313
327 325 326 327 327 328 327 325 326 326 325 323 323 324 324 323 320 319 320 321 322 323 323 323 323 322 320 318 320 319 315 312 309 308 307 306 307 310 311 310 310 311 312
327 327 325 326 326 327 328 327 325 325 325 325 324 324 324 324 322 321 320 322 322 322 322 322 322 321 319 316 318 317 313 309 307 307 306 305 305 308 309 309 306 306 310
326 327 327 326 326 326 326 325 325 324 324 324 324 324 324 324 323 322 321 322 322 321 321 321 321 320 318 315 311 311 312 310 308 308 308 306 304 304 306 306 304 305 305
324 324 326 326 327 325 322 321 321 321 321 320 322 323 323 324 323 322 322 321 321 320 321 321 320 319 316 312 306 304 305 306 306 306 307 306 302 301 302 302 301 303 303
322 323 324 326 327 326 325 325 323 324 321 323 321 320 322 322 323 322 322 321 320 320 320 320 319 317 318 312 310 307 306 305 301 302 304 303 301 299 298 298 297 298 301
320 321 323 324 326 328 328 325 320 319 317 318 318 319 319 321 321 322 321 322 320 320 320 320 319 318 317 315 312 311 303 303 302 299 299 301 301 299 297 296 295 295 295
319 322 323 323 324 326 328 327 324 323 320 321 320 321 321 320 320 321 321 321 320 320 320 320 320 320 318 316 313 312 312 310 306 305 299 298 299 298 297 295 294 292 290
318 320 322 323 323 325 326 327 326 324 325 325 322 319 320 319 321 320 320 320 320 320 320 320 318 318 318 319 316 313 313 311 306 304 306 308 295 297 297 295 293 292 290
316 319 321 321 321 323 324 326 325 324 324 323 320 319 318 319 319 320 320 320 320 320 320 320 320 319 318 318 317 314 313 309 307 305 303 308 307 300 295 294 292 291 289

GFSSE_sfc_thetae_132.txt.gz
Theta_e
338 344 348 348 348 348 346 344 343 343 341 340 339 339 338 337 338 341 341 341 339 339 339 337 336 336 335 334 334 335 334 335 335 335 335 336 337 336 337 335 337 335 337
341 344 347 348 347 347 345 343 344 343 340 338 338 339 338 338 338 337 339 340 339 338 339 336 334 334 333 333 334 334 334 332 332 333 335 336 336 336 335 336 337 338 339
340 343 347 347 348 347 347 345 344 342 339 338 337 338 338 337 337 337 337 339 338 341 340 336 334 333 333 334 333 333 333 333 332 331 335 334 335 338 338 338 337 337 337
341 343 345 345 347 346 345 345 344 342 340 337 337 339 339 337 337 336 336 338 338 338 336 335 334 334 334 333 333 333 331 333 332 335 334 334 335 338 339 337 336 334 332
342 344 346 345 346 345 345 345 344 342 340 336 336 337 338 336 337 336 336 338 338 338 335 334 334 334 333 333 334 334 333 332 331 334 336 337 337 337 337 335 331 329 328
342 344 344 345 346 345 345 344 342 341 338 337 336 337 335 336 335 334 336 337 336 336 335 334 333 333 333 332 332 331 331 330 333 333 336 335 335 335 334 331 328 327 325
341 343 344 344 345 346 344 344 344 341 338 337 336 336 334 335 333 333 335 336 334 334 335 334 333 332 331 331 331 330 328 328 331 333 334 332 332 333 332 329 326 325 324
338 340 342 338 341 344 345 343 343 341 340 338 336 336 335 335 333 332 332 334 332 334 334 333 333 331 330 330 330 329 328 328 329 333 332 331 332 329 330 326 325 323 323
336 337 339 342 340 337 339 340 340 340 339 338 338 336 335 335 333 332 332 333 333 333 333 332 332 331 330 329 328 327 327 328 330 331 328 328 330 329 328 325 323 323 322
335 336 337 339 340 341 341 333 335 336 336 336 334 331 330 329 329 331 331 333 333 332 332 331 331 331 330 328 327 325 325 327 329 329 327 327 329 328 325 324 323 321 321
333 334 336 338 339 340 339 335 331 331 332 331 329 326 326 331 331 330 328 331 332 332 330 329 329 329 329 327 325 323 325 325 326 327 326 328 327 324 323 322 321 320 319
329 332 334 336 337 339 338 339 337 335 334 332 332 331 332 331 331 329 326 327 329 329 330 329 327 325 325 329 327 323 328 325 324 325 324 326 324 323 322 320 319 319 318
330 332 334 335 337 337 337 337 337 335 334 332 332 332 332 331 331 329 329 327 328 322 328 328 327 329 328 330 329 329 327 326 325 325 322 323 323 322 320 318 318 317 317
330 331 333 335 335 337 337 336 336 334 333 331 331 331 330 329 329 328 326 326 327 328 328 328 329 329 329 328 329 328 327 324 323 322 320 319 321 321 320 317 317 316 315
331 331 332 334 334 335 336 336 335 334 332 331 330 330 329 327 327 326 326 326 325 327 328 328 328 328 328 327 328 327 326 324 321 317 319 318 323 320 318 316 316 315 314
332 332 332 333 334 334 334 335 334 334 333 331 329 329 329 329 327 325 325 325 325 327 328 329 328 328 328 328 327 327 327 323 320 316 317 318 319 319 316 315 315 315 315
332 333 331 331 334 333 333 334 334 334 333 331 329 328 329 328 327 325 324 324 325 327 329 329 329 329 328 326 325 326 326 322 319 314 314 316 315 316 317 315 314 314 315
333 332 333 331 331 333 333 333 333 334 333 331 330 329 329 329 328 325 323 324 326 328 328 328 328 327 327 324 324 325 324 317 318 313 312 315 316 317 314 314 313 313 314
332 333 332 333 331 332 334 333 333 333 333 332 331 329 329 330 329 327 326 326 327 327 327 328 327 327 325 325 322 322 322 317 317 315 315 315 315 314 316 313 312 311 312
332 333 333 333 333 333 333 333 332 331 331 332 331 330 329 329 329 329 328 327 327 327 326 327 326 327 326 324 317 315 318 318 318 317 316 315 314 313 313 312 311 307 308
330 331 332 332 333 332 331 329 328 326 329 330 330 330 329 329 328 329 328 328 328 326 326 327 327 325 324 323 314 313 311 313 317 316 316 315 314 311 310 309 309 307 306
327 329 331 332 333 332 331 330 330 329 331 331 331 330 330 329 329 328 329 328 328 326 326 326 325 323 323 321 314 312 309 310 313 314 315 313 313 312 308 307 306 304 305
324 327 329 330 332 333 332 331 330 330 330 328 329 328 328 328 328 329 328 328 328 327 325 325 325 324 320 322 320 315 306 306 313 314 310 311 311 311 309 306 304 303 301
324 327 329 330 331 332 333 330 328 326 324 328 329 329 329 328 327 327 327 327 327 327 325 326 325 325 324 319 319 317 316 316 310 310 314 310 309 308 309 307 304 302 300
323 326 328 329 330 331 332 332 330 328 330 330 330 330 329 329 328 327 327 327 326 327 326 325 325 324 325 323 321 320 319 318 314 310 308 314 310 308 308 307 305 299 296
318 323 326 326 327 329 330 331 330 328 328 329 329 328 328 328 328 327 327 327 326 326 325 325 326 325 324 324 323 323 319 315 314 312 308 310 311 312 303 300 300 295 291

GFSSE_sfc_thetae_135.txt.gz
Theta_e
338 344 348 349 348 346 345 344 343 342 341 340 339 338 338 340 339 342 341 340 340 337 337 337 336 335 334 335 336 335 333 334 335 336 337 337 337 337 338 338 340 337 340
341 344 347 348 348 346 344 342 341 341 340 339 338 338 338 338 338 341 340 339 340 337 336 335 334 335 334 336 334 333 332 332 333 334 336 338 337 338 340 339 339 336 337
340 344 345 347 347 345 343 342 343 340 338 338 338 338 338 339 337 340 339 340 340 338 336 334 334 334 334 333 333 333 333 333 333 334 334 336 337 339 339 337 335 334 334
340 342 344 345 347 345 343 343 342 340 338 338 338 339 338 338 337 339 339 339 338 337 334 334 335 334 333 332 333 332 334 333 333 337 336 336 335 338 336 334 332 331 329
340 342 344 345 346 344 343 343 342 340 337 336 337 339 338 338 336 338 339 339 337 334 334 335 335 333 332 334 334 333 333 332 333 335 334 335 335 335 333 331 329 327 327
339 342 343 345 345 344 344 342 341 339 337 338 338 337 338 336 336 337 337 337 337 336 335 334 332 333 332 331 331 330 330 332 334 334 333 333 333 334 331 329 327 326 325
339 342 344 344 345 345 344 342 342 340 339 337 337 336 336 333 332 336 337 336 335 336 334 333 333 331 331 331 330 329 329 330 330 331 330 329 330 331 329 328 326 325 324
339 340 342 339 342 343 343 343 342 341 340 338 337 335 334 333 332 333 335 333 333 335 335 333 331 331 330 330 329 329 329 330 330 330 328 327 331 330 328 326 325 324 323
338 338 340 342 340 338 339 340 340 340 339 339 338 335 335 335 333 333 334 332 334 333 332 332 331 331 330 329 328 328 328 328 328 329 327 325 331 329 326 325 324 323 322
336 335 336 338 340 340 341 333 335 336 336 336 335 332 330 331 331 330 331 334 333 333 332 332 331 330 329 328 326 325 326 327 327 327 327 325 329 326 324 324 323 322 321
333 333 334 335 336 337 338 335 331 332 332 331 329 327 325 329 329 328 329 332 333 332 330 329 329 329 329 327 324 325 325 324 325 325 325 327 327 325 323 322 321 320 319
332 332 333 334 335 337 335 337 337 335 333 331 330 329 330 330 330 329 326 328 331 330 330 329 328 327 325 327 325 323 325 324 323 324 321 326 324 324 321 320 320 319 318
333 332 332 333 335 335 334 335 335 334 334 331 331 330 331 330 330 329 329 327 328 324 328 328 326 327 328 328 327 327 325 324 323 323 321 323 323 322 321 318 318 317 316
332 332 332 333 333 335 336 335 334 333 333 332 330 331 330 329 329 327 327 326 329 327 328 328 328 328 328 327 327 326 325 324 323 322 319 320 322 322 320 318 317 316 315
332 333 333 334 333 334 334 335 334 333 333 332 330 330 329 328 328 327 327 326 326 327 327 327 327 327 327 327 327 327 325 325 322 320 321 317 323 322 320 318 317 316 315
332 333 334 333 334 334 334 334 334 334 333 333 331 329 328 327 327 326 326 325 325 326 327 327 327 326 326 326 325 326 326 325 322 320 319 319 320 322 320 319 318 317 317
332 334 334 333 334 333 333 334 334 334 333 333 331 329 328 328 327 325 325 325 325 326 327 328 328 327 326 325 325 324 326 325 321 319 318 319 319 318 321 320 319 317 316
332 332 334 334 333 334 333 334 334 334 333 332 331 330 328 328 328 326 325 324 325 326 327 327 327 325 324 324 322 322 324 322 320 319 318 317 318 318 317 318 317 316 315
332 332 333 334 332 333 335 334 334 333 333 333 332 330 329 329 328 327 325 325 326 327 327 327 326 326 323 323 322 323 323 322 320 319 317 317 318 317 318 318 315 314 314
331 332 332 334 334 334 334 335 335 333 333 333 332 331 329 329 329 329 328 328 327 327 326 327 326 326 324 323 319 319 321 321 321 320 318 318 318 317 316 316 312 310 311
330 331 331 332 334 334 333 332 331 330 331 332 333 332 329 329 329 329 329 328 328 326 326 326 326 324 322 324 320 318 318 318 317 320 320 319 318 316 314 313 313 312 308
327 329 331 332 333 334 334 334 333 331 332 332 333 333 332 330 329 328 328 328 327 326 326 326 326 323 321 323 318 317 312 316 315 317 319 317 317 317 314 311 311 310 308
325 328 330 331 333 334 334 334 332 332 331 330 330 330 331 331 330 329 329 328 328 328 326 326 326 324 319 322 321 317 311 308 315 317 315 315 315 314 314 312 309 308 306
324 328 329 330 332 333 335 332 331 328 327 329 331 332 332 332 331 330 329 329 329 329 327 326 326 325 324 318 320 319 321 319 312 310 316 314 314 312 313 312 307 306 304
324 325 328 329 331 332 333 333 331 330 330 331 330 331 331 332 331 330 329 329 328 328 328 327 326 325 324 323 321 318 316 316 317 311 308 313 316 313 311 311 309 305 301
320 324 328 328 329 331 332 333 332 330 330 329 329 330 331 331 331 330 329 329 328 328 327 327 326 326 324 324 323 322 319 315 313 313 310 311 311 316 312 308 306 303 301